KC5DAQ-22 Weather Reports


Display with metric or nautical units.
time (UTC)temp
F
wind
direction
speed
MPH
gust
MPH
rain 1hr
in
rain 24hr
in
rain mn
in
humidity
%
barometer
mb
20260508122240 68 1 3.0 7.0 0.00 0.00 0.00 85 1011.4
20260508122140 68 0 3.0 7.0 0.00 0.00 0.00 85 1011.4
20260508122039 68 0 3.0 7.0 0.00 0.00 0.00 85 1011.4
20260508121939 68 0 3.0 7.0 0.00 0.00 0.00 85 1011.4
20260508121840 68 0 3.0 7.0 0.00 0.00 0.00 85 1011.5
20260508121739 68 0 3.0 7.0 0.00 0.00 0.00 85 1011.5
20260508121639 68 3 4.0 7.0 0.00 0.00 0.00 85 1011.5
20260508121539 68 0 4.0 7.0 0.00 0.00 0.00 85 1011.5
20260508121439 68 4 4.0 7.0 0.00 0.00 0.00 85 1011.5
20260508121339 68 3 3.0 5.0 0.00 0.00 0.00 85 1011.5
20260508121240 68 4 3.0 5.0 0.00 0.00 0.00 85 1011.4
20260508121140 68 4 3.0 5.0 0.00 0.00 0.00 85 1011.4
20260508121038 68 4 3.0 5.0 0.00 0.00 0.00 85 1011.5
20260508120939 68 6 3.0 5.0 0.00 0.00 0.00 85 1011.5
20260508120840 68 7 2.0 4.0 0.00 0.00 0.00 85 1011.6
20260508120739 68 8 2.0 4.0 0.00 0.00 0.00 85 1011.6
20260508120639 68 1 2.0 5.0 0.00 0.00 0.00 85 1011.6
20260508120541 68 1 2.0 5.0 0.00 0.00 0.00 85 1011.6
20260508120440 68 1 2.0 7.0 0.00 0.00 0.00 85 1011.5
20260508120339 68 1 2.0 7.0 0.00 0.00 0.00 85 1011.5
20260508120239 68 0 2.0 7.0 0.00 0.00 0.00 85 1011.5
20260508120141 68 0 2.0 7.0 0.00 0.00 0.00 85 1011.5
20260508120040 68 0 2.0 7.0 0.00 0.00 0.00 85 1011.5
20260508115939 68 0 2.0 7.0 0.00 0.00 0.00 85 1011.4
20260508115840 68 3 3.0 7.0 0.00 0.00 0.00 85 1011.4
20260508115740 68 7 4.0 7.0 0.00 0.00 0.00 85 1011.4
20260508115639 68 7 5.0 7.0 0.00 0.00 0.00 85 1011.3
20260508115539 68 10 5.0 7.0 0.00 0.00 0.00 85 1011.4
20260508115438 68 8 5.0 7.0 0.00 0.00 0.00 85 1011.4
20260508115339 68 8 5.0 7.0 0.00 0.00 0.00 85 1011.4
20260508115238 68 4 4.0 7.0 0.00 0.00 0.00 85 1011.4
20260508115138 68 6 4.0 7.0 0.00 0.00 0.00 85 1011.4
20260508115039 68 6 3.0 7.0 0.00 0.00 0.00 85 1011.4
20260508114938 68 10 3.0 7.0 0.00 0.00 0.00 85 1011.4
20260508114838 68 4 4.0 7.0 0.00 0.00 0.00 85 1011.4
20260508114739 68 6 4.0 7.0 0.00 0.00 0.00 85 1011.3
20260508114639 68 1 4.0 7.0 0.00 0.00 0.00 85 1011.4
20260508114539 68 6 3.0 7.0 0.00 0.00 0.00 85 1011.4
20260508114438 68 4 3.0 7.0 0.00 0.00 0.00 85 1011.4
20260508114340 68 13 4.0 7.0 0.00 0.00 0.00 85 1011.4
20260508114238 68 14 5.0 7.0 0.00 0.00 0.00 85 1011.3
20260508114138 68 14 5.0 7.0 0.00 0.00 0.00 85 1011.4
20260508114040 68 8 5.0 7.0 0.00 0.00 0.00 85 1011.5
20260508113939 68 11 4.0 7.0 0.00 0.00 0.00 85 1011.6
20260508113839 68 11 4.0 7.0 0.00 0.00 0.00 85 1011.6
20260508113738 68 10 3.0 7.0 0.00 0.00 0.00 85 1011.6
20260508113640 68 11 2.0 7.0 0.00 0.00 0.00 85 1011.6
20260508113540 68 13 3.0 7.0 0.00 0.00 0.00 85 1011.7
20260508113438 68 13 3.0 7.0 0.00 0.00 0.00 85 1011.7
20260508113339 68 11 3.0 7.0 0.00 0.00 0.00 85 1011.8
20260508113239 68 8 4.0 7.0 0.00 0.00 0.00 85 1011.8
20260508113138 68 11 5.0 7.0 0.00 0.00 0.00 85 1011.8
20260508113039 68 13 4.0 7.0 0.00 0.00 0.00 85 1011.7
20260508112939 68 6 2.0 6.0 0.00 0.00 0.00 85 1011.6
20260508112837 68 4 3.0 6.0 0.00 0.00 0.00 85 1011.6
20260508112738 68 4 4.0 6.0 0.00 0.00 0.00 85 1011.6
20260508112640 68 6 4.0 5.0 0.00 0.00 0.00 85 1011.5
20260508112538 68 10 4.0 6.0 0.00 0.00 0.00 85 1011.5
20260508112440 68 8 3.0 6.0 0.00 0.00 0.00 85 1011.6
20260508112340 68 0 2.0 6.0 0.00 0.00 0.00 85 1011.6
20260508112239 68 0 3.0 6.0 0.00 0.00 0.00 85 1011.6
20260508112138 68 0 3.0 7.0 0.00 0.00 0.00 85 1011.6
20260508112037 68 0 2.0 9.0 0.00 0.00 0.00 85 1011.4
20260508111934 68 0 3.0 9.0 0.00 0.00 0.00 85 1011.3
20260508111834 68 1 3.0 9.0 0.00 0.00 0.00 85 1011.3
20260508111732 68 7 3.0 9.0 0.00 0.00 0.00 85 1011.1
20260508111632 68 13 3.0 9.0 0.00 0.00 0.00 85 1010.9
20260508111532 68 11 3.0 9.0 0.00 0.00 0.00 85 1010.8
20260508111431 68 11 4.0 9.0 0.00 0.00 0.00 85 1010.7
20260508111332 68 13 5.0 9.0 0.00 0.00 0.00 85 1010.6
20260508111231 68 8 5.0 9.0 0.00 0.00 0.00 85 1010.6
20260508111131 68 13 6.0 9.0 0.00 0.00 0.00 85 1010.6
20260508111031 68 14 6.0 9.0 0.00 0.00 0.00 85 1010.6
20260508110931 68 13 5.0 9.0 0.00 0.00 0.00 85 1010.6
20260508110832 68 11 4.0 10.0 0.00 0.00 0.00 85 1010.6
20260508110732 68 14 5.0 10.0 0.00 0.00 0.00 85 1010.6
20260508110632 68 18 4.0 10.0 0.00 0.00 0.00 85 1010.6
20260508110531 68 11 4.0 10.0 0.00 0.00 0.00 85 1010.7
20260508110431 68 11 5.0 10.0 0.00 0.00 0.00 85 1010.6
20260508110332 68 10 6.0 10.0 0.00 0.00 0.00 85 1010.7
20260508110232 68 14 5.0 10.0 0.00 0.00 0.00 85 1010.7
20260508110131 68 13 5.0 10.0 0.00 0.00 0.00 86 1010.7
20260508110031 68 17 6.0 10.0 0.00 0.00 0.00 86 1010.7
20260508105931 68 18 7.0 10.0 0.00 0.00 0.00 86 1010.7
20260508105832 68 18 7.0 9.0 0.00 0.00 0.00 86 1010.7
20260508105731 68 13 7.0 9.0 0.00 0.00 0.00 86 1010.7
20260508105626 68 11 6.0 9.0 0.00 0.00 0.00 86 1010.7
20260508105525 68 16 5.0 7.0 0.00 0.00 0.00 86 1010.8
20260508105425 68 17 5.0 7.0 0.00 0.00 0.00 86 1010.8
20260508105323 68 13 5.0 7.0 0.00 0.00 0.00 86 1010.9
20260508105214 68 14 4.0 7.0 0.00 0.00 0.00 86 1010.9
20260508105114 68 10 4.0 7.0 0.00 0.00 0.00 86 1011.0
20260508105011 68 11 4.0 7.0 0.00 0.00 0.00 86 1011.0
20260508104910 68 7 4.0 7.0 0.00 0.00 0.00 86 1011.0
20260508104809 68 8 6.0 7.0 0.00 0.00 0.00 86 1011.0
20260508104709 68 11 5.0 7.0 0.00 0.00 0.00 86 1011.1
20260508104606 68 8 5.0 7.0 0.00 0.00 0.00 86 1011.1
20260508104506 68 10 5.0 7.0 0.00 0.00 0.00 86 1011.1
20260508104402 68 6 6.0 7.0 0.00 0.00 0.00 86 1011.1
20260508104302 68 7 6.0 7.0 0.00 0.00 0.00 86 1011.1
20260508104203 68 7 5.0 7.0 0.00 0.00 0.00 86 1011.3
20260508104102 68 6 4.0 7.0 0.00 0.00 0.00 87 1011.3
20260508104003 68 4 4.0 6.0 0.00 0.00 0.00 86 1011.4
20260508103902 68 0 5.0 6.0 0.00 0.00 0.00 87 1011.3
20260508103803 68 0 4.0 6.0 0.00 0.00 0.00 87 1011.3
20260508103702 68 1 3.0 6.0 0.00 0.00 0.00 87 1011.3
20260508103602 68 0 3.0 6.0 0.00 0.00 0.00 87 1011.4
20260508103503 68 0 3.0 6.0 0.00 0.00 0.00 87 1011.4
20260508103403 68 0 3.0 6.0 0.00 0.00 0.00 87 1011.4
20260508103301 68 3 4.0 6.0 0.00 0.00 0.00 87 1011.4
20260508103202 68 3 4.0 9.0 0.00 0.00 0.00 87 1011.5
20260508103103 68 6 3.0 9.0 0.00 0.00 0.00 87 1011.4
20260508103002 68 6 3.0 9.0 0.00 0.00 0.00 86 1011.3
20260508102902 68 8 4.0 9.0 0.00 0.00 0.00 86 1011.2
20260508102803 68 11 4.0 10.0 0.00 0.00 0.00 86 1011.0
20260508102701 68 8 5.0 10.0 0.00 0.00 0.00 86 1011.0
20260508102603 68 13 5.0 10.0 0.00 0.00 0.00 86 1011.0
20260508102503 68 13 5.0 10.0 0.00 0.00 0.00 86 1010.9
20260508102403 68 13 5.0 10.0 0.00 0.00 0.00 86 1010.9
20260508102306 68 13 5.0 10.0 0.00 0.00 0.00 86 1010.7
20260508102202 68 10 6.0 10.0 0.00 0.00 0.00 86 1010.6
20260508102103 68 14 6.0 10.0 0.00 0.00 0.00 86 1010.6
20260508102004 68 16 6.0 10.0 0.00 0.00 0.00 86 1010.5
20260508101903 68 8 6.0 11.0 0.00 0.00 0.00 86 1010.6
20260508101803 68 10 6.0 11.0 0.00 0.00 0.00 86 1010.6
20260508101702 68 6 7.0 11.0 0.00 0.00 0.00 86 1010.5
20260508101603 68 13 6.0 11.0 0.00 0.00 0.00 86 1010.5
20260508101502 68 4 5.0 11.0 0.00 0.00 0.00 86 1010.5
20260508101403 68 13 5.0 11.0 0.00 0.00 0.00 86 1010.5
20260508101303 68 10 5.0 11.0 0.00 0.00 0.00 86 1010.7
20260508101202 68 16 5.0 11.0 0.00 0.00 0.00 86 1010.7
20260508101103 68 10 6.0 11.0 0.00 0.00 0.00 86 1010.7
20260508101003 68 11 7.0 11.0 0.00 0.00 0.00 86 1010.6
20260508100902 68 10 6.0 10.0 0.00 0.00 0.00 86 1010.7
20260508100802 68 11 5.0 10.0 0.00 0.00 0.00 86 1010.8
20260508100704 68 8 4.0 10.0 0.00 0.00 0.00 86 1010.9
20260508100602 68 7 4.0 10.0 0.00 0.00 0.00 86 1011.0
20260508100502 68 0 4.0 10.0 0.00 0.00 0.00 86 1011.1
20260508100403 68 11 6.0 10.0 0.00 0.00 0.00 86 1011.1
20260508100302 68 10 6.0 10.0 0.00 0.00 0.00 86 1011.1
20260508100202 68 4 6.0 10.0 0.00 0.00 0.00 86 1011.2
20260508100103 68 8 6.0 10.0 0.00 0.00 0.00 86 1011.1
20260508100003 68 6 5.0 10.0 0.00 0.00 0.00 86 1011.2
20260508095902 68 11 5.0 10.0 0.00 0.00 0.00 87 1011.2
20260508095802 68 8 5.0 10.0 0.00 0.00 0.00 86 1011.3
20260508095702 68 6 5.0 10.0 0.00 0.00 0.00 86 1011.3
20260508095602 68 6 6.0 10.0 0.00 0.00 0.00 86 1011.3
20260508095502 68 4 5.0 10.0 0.00 0.00 0.00 86 1011.4
20260508095403 68 0 4.0 10.0 0.00 0.00 0.00 87 1011.3
20260508095306 68 1 4.0 10.0 0.00 0.00 0.00 87 1011.3
20260508095203 68 3 5.0 7.0 0.00 0.00 0.00 86 1011.3
20260508095102 68 7 5.0 7.0 0.00 0.00 0.00 86 1011.3
20260508095003 68 4 4.0 7.0 0.00 0.00 0.00 86 1011.3
20260508094903 68 4 4.0 10.0 0.00 0.00 0.00 86 1011.3
20260508094802 68 0 3.0 10.0 0.00 0.00 0.00 86 1011.3
20260508094703 68 0 2.0 10.0 0.00 0.00 0.00 86 1011.3
20260508094604 68 0 3.0 10.0 0.00 0.00 0.00 86 1011.3
20260508094503 68 0 3.0 10.0 0.00 0.00 0.00 86 1011.4
20260508094402 68 0 3.0 10.0 0.00 0.00 0.00 86 1011.4
20260508094303 68 0 3.0 10.0 0.00 0.00 0.00 86 1011.4
20260508094203 68 0 4.0 10.0 0.00 0.00 0.00 86 1011.4
20260508094103 68 4 5.0 10.0 0.00 0.00 0.00 86 1011.3
20260508094004 68 3 5.0 10.0 0.00 0.00 0.00 86 1011.2
20260508093903 68 0 4.0 9.0 0.00 0.00 0.00 86 1011.1
20260508093803 68 7 4.0 12.0 0.00 0.00 0.00 86 1011.1
20260508093704 68 4 5.0 12.0 0.00 0.00 0.00 86 1010.9
20260508093602 68 13 4.0 12.0 0.00 0.00 0.00 86 1010.8
20260508093502 68 7 4.0 12.0 0.00 0.00 0.00 86 1010.6
20260508093403 68 11 5.0 12.0 0.00 0.00 0.00 86 1010.6
20260508093303 68 16 5.0 12.0 0.00 0.00 0.00 86 1010.5
20260508093202 68 17 6.0 12.0 0.00 0.00 0.00 86 1010.6
20260508093102 68 13 6.0 12.0 0.00 0.00 0.00 86 1010.6
20260508093005 68 13 6.0 14.0 0.00 0.00 0.00 86 1010.6
20260508092903 68 14 8.0 14.0 0.00 0.00 0.00 86 1010.6
20260508092803 68 16 8.0 14.0 0.00 0.00 0.00 86 1010.5
20260508092702 68 17 9.0 14.0 0.00 0.00 0.00 86 1010.5
20260508092602 68 14 8.0 14.0 0.00 0.00 0.00 86 1010.5
20260508092503 68 10 7.0 14.0 0.00 0.00 0.00 86 1010.5
20260508092401 68 17 6.0 14.0 0.00 0.00 0.00 86 1010.5
20260508092312 68 14 7.0 14.0 0.00 0.00 0.00 86 1010.5
20260508092202 68 16 10.0 14.0 0.00 0.00 0.00 86 1010.4
20260508092101 68 18 10.0 14.0 0.00 0.00 0.00 86 1010.3
20260508092003 68 13 9.0 13.0 0.00 0.00 0.00 86 1010.4
20260508091903 68 18 9.0 13.0 0.00 0.00 0.00 86 1010.5
20260508091802 68 16 9.0 13.0 0.00 0.00 0.00 86 1010.6
20260508091702 68 10 7.0 11.0 0.00 0.00 0.00 86 1010.6
20260508091604 68 11 5.0 9.0 0.00 0.00 0.00 86 1010.6
20260508091502 68 11 4.0 9.0 0.00 0.00 0.00 86 1010.7
20260508091401 68 8 4.0 9.0 0.00 0.00 0.00 86 1010.8
20260508091300 68 8 5.0 9.0 0.00 0.00 0.00 86 1010.8
20260508091159 68 7 4.0 9.0 0.00 0.00 0.00 86 1010.8
20260508091056 68 7 4.0 9.0 0.00 0.00 0.00 86 1010.8
20260508090955 68 8 5.0 9.0 0.00 0.00 0.00 85 1010.8
20260508090852 68 7 6.0 9.0 0.00 0.00 0.00 85 1010.8
20260508090751 68 8 5.0 9.0 0.00 0.00 0.00 85 1010.8
20260508090649 68 6 5.0 7.0 0.00 0.00 0.00 85 1010.7
20260508090549 68 6 5.0 7.0 0.00 0.00 0.00 85 1010.7
20260508090446 68 8 5.0 7.0 0.00 0.00 0.00 85 1010.7
20260508090342 68 8 5.0 7.0 0.00 0.00 0.00 85 1010.9
20260508090239 68 8 6.0 7.0 0.00 0.00 0.00 85 1010.9
20260508090138 68 7 5.0 7.0 0.00 0.00 0.00 85 1011.0
20260508090039 68 7 5.0 7.0 0.00 0.00 0.00 85 1011.0
20260508085935 68 14 4.0 7.0 0.00 0.00 0.00 85 1011.1
20260508085835 68 11 4.0 7.0 0.00 0.00 0.00 85 1011.1
20260508085736 68 13 4.0 7.0 0.00 0.00 0.00 85 1011.1
20260508085634 68 13 5.0 7.0 0.00 0.00 0.00 85 1011.1
20260508085534 68 11 6.0 7.0 0.00 0.00 0.00 85 1011.1
20260508085434 68 11 5.0 6.0 0.00 0.00 0.00 85 1011.1
20260508085335 68 7 4.0 6.0 0.00 0.00 0.00 85 1011.2
20260508085234 68 10 3.0 6.0 0.00 0.00 0.00 85 1011.1
20260508085134 68 8 4.0 6.0 0.00 0.00 0.00 85 1011.0
20260508085035 68 8 5.0 6.0 0.00 0.00 0.00 85 1011.0
20260508084934 68 8 5.0 6.0 0.00 0.00 0.00 85 1011.0
20260508084835 68 6 4.0 6.0 0.00 0.00 0.00 85 1011.0
20260508084735 68 10 4.0 6.0 0.00 0.00 0.00 85 1011.0
20260508084635 68 8 4.0 6.0 0.00 0.00 0.00 85 1011.1
20260508084534 68 11 4.0 6.0 0.00 0.00 0.00 85 1011.1
20260508084434 68 6 4.0 6.0 0.00 0.00 0.00 85 1011.1
20260508084335 68 10 4.0 6.0 0.00 0.00 0.00 85 1011.1
20260508084234 68 10 4.0 6.0 0.00 0.00 0.00 85 1011.1
20260508084135 68 10 4.0 6.0 0.00 0.00 0.00 85 1011.2
20260508084035 68 10 4.0 6.0 0.00 0.00 0.00 85 1011.2
20260508083935 68 8 3.0 6.0 0.00 0.00 0.00 85 1011.2
20260508083834 68 11 3.0 6.0 0.00 0.00 0.00 85 1011.2
20260508083734 68 7 3.0 6.0 0.00 0.00 0.00 85 1011.3
20260508083635 68 8 4.0 6.0 0.00 0.00 0.00 85 1011.2
20260508083534 68 7 4.0 6.0 0.00 0.00 0.00 85 1011.3
20260508083435 68 4 3.0 6.0 0.00 0.00 0.00 85 1011.3
20260508083334 68 4 3.0 6.0 0.00 0.00 0.00 85 1011.3
20260508083233 68 4 3.0 7.0 0.00 0.00 0.00 85 1011.3
20260508083136 68 3 3.0 7.0 0.00 0.00 0.00 85 1011.3
20260508083032 68 3 3.0 10.0 0.00 0.00 0.00 85 1011.2
20260508082931 68 3 4.0 10.0 0.00 0.00 0.00 84 1011.3
20260508082831 68 3 4.0 10.0 0.00 0.00 0.00 84 1011.2
20260508082732 68 3 5.0 10.0 0.00 0.00 0.00 84 1011.3
20260508082631 68 6 4.0 10.0 0.00 0.00 0.00 84 1011.2
20260508082530 68 4 4.0 10.0 0.00 0.00 0.00 84 1011.2
20260508082431 68 6 5.0 10.0 0.00 0.00 0.00 84 1011.2
20260508082332 68 4 6.0 10.0 0.00 0.00 0.00 84 1011.1
20260508082230 68 6 6.0 11.0 0.00 0.00 0.00 84 1011.1
20260508082128 68 7 5.0 11.0 0.00 0.00 0.00 84 1011.1
20260508082023 68 6 5.0 11.0 0.00 0.00 0.00 84 1011.0
20260508081921 68 8 5.0 11.0 0.00 0.00 0.00 84 1011.0
20260508081821 68 6 5.0 11.0 0.00 0.00 0.00 84 1011.0
20260508081718 68 7 6.0 12.0 0.00 0.00 0.00 84 1010.9
20260508081617 68 8 6.0 12.0 0.00 0.00 0.00 84 1011.0
20260508081516 68 4 5.0 12.0 0.00 0.00 0.00 84 1010.9
20260508081415 68 10 6.0 12.0 0.00 0.00 0.00 84 1010.9
20260508081313 68 6 8.0 12.0 0.00 0.00 0.00 84 1010.9
20260508081210 68 7 7.0 12.0 0.00 0.00 0.00 84 1010.9
20260508081108 68 7 6.0 12.0 0.00 0.00 0.00 84 1010.9
20260508081007 68 6 7.0 12.0 0.00 0.00 0.00 84 1010.9
20260508080903 68 11 9.0 12.0 0.00 0.00 0.00 84 1010.8
20260508080804 68 7 8.0 12.0 0.00 0.00 0.00 84 1010.9
20260508080704 68 8 8.0 11.0 0.00 0.00 0.00 84 1011.0
20260508080602 68 6 8.0 11.0 0.00 0.00 0.00 84 1010.9
20260508080504 68 3 8.0 11.0 0.00 0.00 0.00 84 1010.9
20260508080403 68 7 7.0 11.0 0.00 0.00 0.00 84 1011.0
20260508080303 68 7 6.0 11.0 0.00 0.00 0.00 84 1011.1
20260508080203 68 8 6.0 11.0 0.00 0.00 0.00 84 1011.2
20260508080002 68 6 5.0 9.0 0.00 0.00 0.00 84 1011.2
20260508075903 68 7 5.0 9.0 0.00 0.00 0.00 84 1011.3
20260508075804 68 0 5.0 9.0 0.00 0.00 0.00 84 1011.4
20260508075702 68 0 4.0 7.0 0.00 0.00 0.00 84 1011.4
20260508075602 68 6 4.0 7.0 0.00 0.00 0.00 84 1011.5
20260508075503 68 0 4.0 7.0 0.00 0.00 0.00 84 1011.5
20260508075403 68 3 4.0 7.0 0.00 0.00 0.00 84 1011.5
20260508075301 68 3 4.0 7.0 0.00 0.00 0.00 84 1011.5
20260508075203 68 0 3.0 7.0 0.00 0.00 0.00 84 1011.4
20260508075103 68 6 3.0 9.0 0.00 0.00 0.00 84 1011.5
20260508075004 68 4 3.0 9.0 0.00 0.00 0.00 84 1011.4
20260508074902 68 4 4.0 9.0 0.00 0.00 0.00 84 1011.4
20260508074802 68 6 4.0 9.0 0.00 0.00 0.00 84 1011.4
20260508074703 68 3 4.0 9.0 0.00 0.00 0.00 83 1011.4
20260508074602 68 4 5.0 9.0 0.00 0.00 0.00 84 1011.3
20260508074503 68 4 5.0 9.0 0.00 0.00 0.00 84 1011.4
20260508074403 68 0 4.0 9.0 0.00 0.00 0.00 84 1011.4
20260508074302 68 3 4.0 9.0 0.00 0.00 0.00 84 1011.4
20260508074202 68 0 4.0 9.0 0.00 0.00 0.00 84 1011.5
20260508074103 68 3 3.0 9.0 0.00 0.00 0.00 84 1011.5
20260508074004 68 4 2.0 9.0 0.00 0.00 0.00 84 1011.6
20260508073902 68 0 3.0 9.0 0.00 0.00 0.00 84 1011.6
20260508073802 69 0 4.0 9.0 0.00 0.00 0.00 84 1011.6
20260508073704 68 6 5.0 9.0 0.00 0.00 0.00 84 1011.6
20260508073603 68 7 5.0 9.0 0.00 0.00 0.00 84 1011.7
20260508073505 68 3 4.0 9.0 0.00 0.00 0.00 83 1011.6
20260508073402 69 3 4.0 6.0 0.00 0.00 0.00 83 1011.7
20260508073302 69 3 4.0 6.0 0.00 0.00 0.00 83 1011.6
20260508073202 69 0 3.0 7.0 0.00 0.00 0.00 83 1011.6
20260508073102 69 0 3.0 7.0 0.00 0.00 0.00 83 1011.6
20260508073005 69 3 2.0 9.0 0.00 0.00 0.00 83 1011.6
20260508072902 69 0 3.0 9.0 0.00 0.00 0.00 83 1011.6
20260508072803 69 0 4.0 9.0 0.00 0.00 0.00 83 1011.5
20260508072703 69 7 4.0 9.0 0.00 0.00 0.00 83 1011.5
20260508072602 69 1 3.0 9.0 0.00 0.00 0.00 83 1011.5
20260508072502 69 0 3.0 9.0 0.00 0.00 0.00 83 1011.4
20260508072403 69 1 4.0 9.0 0.00 0.00 0.00 83 1011.5
20260508072307 69 0 4.0 9.0 0.00 0.00 0.00 83 1011.4
20260508072204 69 4 5.0 9.0 0.00 0.00 0.00 83 1011.4
20260508072103 69 0 5.0 9.0 0.00 0.00 0.00 83 1011.4
20260508072004 69 6 3.0 7.0 0.00 0.00 0.00 83 1011.3
20260508071903 69 0 4.0 7.0 0.00 0.00 0.00 83 1011.3
20260508071802 69 4 5.0 7.0 0.00 0.00 0.00 83 1011.3
20260508071703 69 7 4.0 7.0 0.00 0.00 0.00 83 1011.3
20260508071602 69 6 4.0 6.0 0.00 0.00 0.00 83 1011.3
20260508071502 69 6 4.0 6.0 0.00 0.00 0.00 83 1011.3
20260508071402 69 7 4.0 6.0 0.00 0.00 0.00 83 1011.4
20260508071302 69 3 2.0 9.0 0.00 0.00 0.00 83 1011.4
20260508071202 69 1 2.0 9.0 0.00 0.00 0.00 83 1011.5
20260508071104 69 1 3.0 9.0 0.00 0.00 0.00 84 1011.5
20260508071003 69 1 3.0 9.0 0.00 0.00 0.00 84 1011.5
20260508070902 69 10 3.0 9.0 0.00 0.00 0.00 84 1011.5
20260508070804 69 8 5.0 9.0 0.00 0.00 0.00 84 1011.4
20260508070704 69 8 5.0 9.0 0.00 0.00 0.00 84 1011.3
20260508070603 69 8 5.0 9.0 0.00 0.00 0.00 84 1011.3
20260508070504 69 8 5.0 9.0 0.00 0.00 0.00 84 1011.3
20260508070402 69 0 4.0 9.0 0.00 0.00 0.00 84 1011.3
20260508070304 69 3 2.0 5.0 0.00 0.00 0.00 84 1011.3
20260508070202 69 4 2.0 5.0 0.00 0.00 0.00 84 1011.4
20260508070105 69 4 2.0 5.0 0.00 0.00 0.00 84 1011.4
20260508070003 69 4 3.0 5.0 0.00 0.00 0.00 84 1011.4
20260508065902 69 4 4.0 5.0 0.00 0.00 0.00 84 1011.3
20260508065804 69 4 4.0 5.0 0.00 0.00 0.00 84 1011.3
20260508065704 69 7 4.0 5.0 0.00 0.00 0.00 84 1011.2
20260508065603 69 7 4.0 6.0 0.00 0.00 0.00 84 1011.3
20260508065505 69 7 4.0 6.0 0.00 0.00 0.00 84 1011.2
20260508065404 69 7 4.0 6.0 0.00 0.00 0.00 84 1011.3
20260508065306 69 7 4.0 6.0 0.00 0.00 0.00 84 1011.3
20260508065202 69 6 4.0 6.0 0.00 0.00 0.00 84 1011.4
20260508065103 69 8 4.0 6.0 0.00 0.00 0.00 83 1011.4
20260508065002 69 8 4.0 6.0 0.00 0.00 0.00 84 1011.4
20260508064904 69 7 4.0 6.0 0.00 0.00 0.00 84 1011.4
20260508064801 69 6 5.0 6.0 0.00 0.00 0.00 84 1011.5
20260508064702 69 7 5.0 6.0 0.00 0.00 0.00 84 1011.5
20260508064603 69 7 4.0 6.0 0.00 0.00 0.00 84 1011.5
20260508064503 69 10 3.0 5.0 0.00 0.00 0.00 84 1011.5
20260508064402 69 11 3.0 5.0 0.00 0.00 0.00 84 1011.5
20260508064303 69 11 3.0 5.0 0.00 0.00 0.00 84 1011.6
20260508064202 69 11 3.0 5.0 0.00 0.00 0.00 84 1011.5
20260508064102 69 4 2.0 5.0 0.00 0.00 0.00 84 1011.5
20260508064003 69 4 3.0 5.0 0.00 0.00 0.00 84 1011.4
20260508063904 69 7 3.0 5.0 0.00 0.00 0.00 83 1011.5
20260508063804 69 6 3.0 5.0 0.00 0.00 0.00 83 1011.5
20260508063703 69 4 3.0 5.0 0.00 0.00 0.00 83 1011.5
20260508063603 69 4 3.0 5.0 0.00 0.00 0.00 83 1011.6
20260508063503 69 4 3.0 5.0 0.00 0.00 0.00 83 1011.5
20260508063403 69 10 3.0 6.0 0.00 0.00 0.00 83 1011.6
20260508063303 69 10 3.0 7.0 0.00 0.00 0.00 83 1011.6
20260508063201 69 6 3.0 7.0 0.00 0.00 0.00 83 1011.6
20260508063102 69 8 2.0 7.0 0.00 0.00 0.00 83 1011.5
20260508063002 69 8 2.0 7.0 0.00 0.00 0.00 83 1011.5
20260508062904 69 11 2.0 7.0 0.00 0.00 0.00 83 1011.4
20260508062803 69 11 4.0 7.0 0.00 0.00 0.00 83 1011.4
20260508062701 69 13 4.0 7.0 0.00 0.00 0.00 83 1011.4
20260508062602 69 11 4.0 7.0 0.00 0.00 0.00 83 1011.4
20260508062504 69 13 5.0 7.0 0.00 0.00 0.00 83 1011.3
20260508062402 69 13 4.0 7.0 0.00 0.00 0.00 84 1011.3
20260508062306 69 17 4.0 6.0 0.00 0.00 0.00 83 1011.3
20260508062203 69 17 4.0 6.0 0.00 0.00 0.00 83 1011.3
20260508062102 69 14 4.0 5.0 0.00 0.00 0.00 84 1011.3
20260508062005 69 16 4.0 5.0 0.00 0.00 0.00 84 1011.4
20260508061903 69 16 4.0 5.0 0.00 0.00 0.00 84 1011.4
20260508061803 69 14 3.0 5.0 0.00 0.00 0.00 84 1011.5
20260508061701 69 13 3.0 5.0 0.00 0.00 0.00 84 1011.5
20260508061600 69 11 3.0 5.0 0.00 0.00 0.00 84 1011.6
20260508061459 69 13 2.0 5.0 0.00 0.00 0.00 84 1011.6
20260508061358 69 4 2.0 5.0 0.00 0.00 0.00 84 1011.7
20260508061245 69 4 3.0 5.0 0.00 0.00 0.00 84 1011.8
20260508061142 69 4 2.0 5.0 0.00 0.00 0.00 84 1011.8
20260508061042 69 1 1.0 4.0 0.00 0.00 0.00 84 1011.9
20260508060940 69 1 1.0 4.0 0.00 0.00 0.00 83 1012.0
20260508060835 69 1 0.0 4.0 0.00 0.00 0.00 83 1012.0
20260508060735 69 1 1.0 4.0 0.00 0.00 0.00 83 1012.1
20260508060632 69 1 1.0 4.0 0.00 0.00 0.00 83 1011.9
20260508060532 69 4 1.0 4.0 0.00 0.00 0.00 83 1011.9
20260508060432 69 4 1.0 4.0 0.00 0.00 0.00 83 1011.8
20260508060331 69 3 2.0 4.0 0.00 0.00 0.00 83 1011.7
20260508060231 69 4 2.0 5.0 0.00 0.00 0.00 83 1011.7
20260508060131 69 6 2.0 5.0 0.00 0.00 0.00 83 1011.7
20260508060032 69 1 2.0 5.0 0.00 0.00 0.00 83 1011.6
20260508055931 69 1 2.0 5.0 0.00 0.00 0.00 83 1011.7
20260508055831 69 4 2.0 5.0 0.00 0.00 0.00 83 1011.6
20260508055733 69 34 2.0 5.0 0.00 0.00 0.00 83 1011.7
20260508055631 69 34 3.0 5.0 0.00 0.00 0.00 83 1011.5
20260508055531 69 35 2.0 5.0 0.00 0.00 0.00 83 1011.5
20260508055432 69 35 3.0 5.0 0.00 0.00 0.00 82 1011.4
20260508055331 69 58 3.0 5.0 0.00 0.00 0.00 82 1011.3
20260508055231 69 58 2.0 5.0 0.00 0.00 0.00 82 1011.3
20260508055131 69 62 3.0 6.0 0.00 0.00 0.00 82 1011.2
20260508055032 69 61 3.0 6.0 0.00 0.00 0.00 82 1011.3
20260508054932 69 51 2.0 6.0 0.00 0.00 0.00 82 1011.3
20260508054831 69 48 2.0 6.0 0.00 0.00 0.00 82 1011.3
20260508054732 69 45 2.0 6.0 0.00 0.00 0.00 82 1011.3
20260508054632 69 45 3.0 6.0 0.00 0.00 0.00 82 1011.3
20260508054531 69 44 2.0 6.0 0.00 0.00 0.00 82 1011.4
20260508054432 69 42 3.0 6.0 0.00 0.00 0.00 82 1011.4
20260508054332 69 62 4.0 6.0 0.00 0.00 0.00 82 1011.5
20260508054231 69 58 3.0 6.0 0.00 0.00 0.00 82 1011.6
20260508054131 69 52 2.0 6.0 0.00 0.00 0.00 82 1011.4
20260508054032 69 54 3.0 6.0 0.00 0.00 0.00 82 1011.4
20260508053932 69 62 3.0 6.0 0.00 0.00 0.00 82 1011.4
20260508053831 69 68 4.0 6.0 0.00 0.00 0.00 82 1011.4
20260508053731 69 52 4.0 6.0 0.00 0.00 0.00 82 1011.5
20260508053631 69 39 3.0 6.0 0.00 0.00 0.00 82 1011.5
20260508053532 69 49 3.0 5.0 0.00 0.00 0.00 82 1011.5
20260508053432 69 51 4.0 5.0 0.00 0.00 0.00 82 1011.4
20260508053332 69 41 4.0 5.0 0.00 0.00 0.00 82 1011.5
20260508053232 69 37 3.0 5.0 0.00 0.00 0.00 82 1011.4
20260508053130 69 32 3.0 5.0 0.00 0.00 0.00 81 1011.5
20260508053031 70 32 2.0 6.0 0.00 0.00 0.00 81 1011.5
20260508052931 70 32 2.0 6.0 0.00 0.00 0.00 81 1011.5
20260508052830 70 32 2.0 6.0 0.00 0.00 0.00 81 1011.5
20260508052730 70 32 2.0 6.0 0.00 0.00 0.00 81 1011.4
20260508052631 70 21 3.0 6.0 0.00 0.00 0.00 81 1011.5
20260508052532 70 38 3.0 6.0 0.00 0.00 0.00 81 1011.4
20260508052429 70 35 3.0 6.0 0.00 0.00 0.00 81 1011.5
20260508052330 70 32 3.0 6.0 0.00 0.00 0.00 81 1011.4
20260508052232 70 35 4.0 6.0 0.00 0.00 0.00 81 1011.4
20260508052131 70 35 4.0 6.0 0.00 0.00 0.00 81 1011.4
20260508052029 70 39 3.0 6.0 0.00 0.00 0.00 81 1011.4
20260508051930 70 30 3.0 6.0 0.00 0.00 0.00 81 1011.4
20260508051831 70 37 3.0 6.0 0.00 0.00 0.00 81 1011.3
20260508051729 70 54 3.0 6.0 0.00 0.00 0.00 81 1011.3
20260508051629 70 55 2.0 6.0 0.00 0.00 0.00 81 1011.4
20260508051531 70 48 3.0 6.0 0.00 0.00 0.00 81 1011.3
20260508051431 70 83 2.0 6.0 0.00 0.00 0.00 81 1011.3
20260508051329 70 45 2.0 6.0 0.00 0.00 0.00 81 1011.3
20260508051230 70 39 4.0 6.0 0.00 0.00 0.00 81 1011.3
20260508051130 70 54 4.0 6.0 0.00 0.00 0.00 81 1011.3
20260508051029 70 45 4.0 6.0 0.00 0.00 0.00 80 1011.3
20260508050929 70 58 4.0 6.0 0.00 0.00 0.00 81 1011.4
20260508050832 70 59 4.0 5.0 0.00 0.00 0.00 80 1011.4
20260508050731 70 59 3.0 5.0 0.00 0.00 0.00 80 1011.5
20260508050629 70 31 3.0 5.0 0.00 0.00 0.00 80 1011.5
20260508050529 70 31 3.0 5.0 0.00 0.00 0.00 80 1011.6
20260508050431 70 42 3.0 5.0 0.00 0.00 0.00 80 1011.6
20260508050329 70 42 4.0 5.0 0.00 0.00 0.00 80 1011.6
20260508050230 70 35 4.0 5.0 0.00 0.00 0.00 80 1011.6
20260508050131 70 45 3.0 5.0 0.00 0.00 0.00 80 1011.6
20260508050030 70 45 3.0 5.0 0.00 0.00 0.00 80 1011.5
20260508045931 70 45 3.0 5.0 0.00 0.00 0.00 80 1011.4
20260508045806 70 59 3.0 5.0 0.00 0.00 0.00 80 1011.5
20260508045705 70 31 2.0 5.0 0.00 0.00 0.00 80 1011.4
20260508045603 70 31 2.0 5.0 0.00 0.00 0.00 80 1011.6
20260508045504 70 31 2.0 5.0 0.00 0.00 0.00 80 1011.6
20260508045402 70 31 2.0 6.0 0.00 0.00 0.00 80 1011.7
20260508045306 70 31 2.0 6.0 0.00 0.00 0.00 80 1011.6
20260508045203 70 31 2.0 6.0 0.00 0.00 0.00 80 1011.7
20260508045102 70 31 3.0 6.0 0.00 0.00 0.00 79 1011.7
20260508045003 71 31 3.0 6.0 0.00 0.00 0.00 79 1011.7
20260508044902 71 42 3.0 6.0 0.00 0.00 0.00 79 1011.6
20260508044802 71 31 3.0 6.0 0.00 0.00 0.00 79 1011.6
20260508044702 71 31 3.0 6.0 0.00 0.00 0.00 79 1011.5
20260508044603 71 30 4.0 9.0 0.00 0.00 0.00 79 1011.6
20260508044504 71 28 4.0 9.0 0.00 0.00 0.00 78 1011.7
20260508044403 71 34 4.0 9.0 0.00 0.00 0.00 78 1011.7
20260508044303 71 28 4.0 9.0 0.00 0.00 0.00 78 1011.7
20260508044203 71 34 5.0 10.0 0.00 0.00 0.00 78 1011.8
20260508044103 71 32 5.0 11.0 0.00 0.00 0.00 78 1011.8
20260508044004 71 31 4.0 11.0 0.00 0.00 0.00 78 1011.8
20260508043902 71 44 3.0 11.0 0.00 0.00 0.00 78 1011.8
20260508043802 71 63 4.0 11.0 0.00 0.00 0.00 78 1011.6
20260508043703 71 45 6.0 11.0 0.00 0.00 0.00 78 1011.6
20260508043603 71 56 6.0 11.0 0.00 0.00 0.00 78 1011.6
20260508043504 71 80 5.0 11.0 0.00 0.00 0.00 78 1011.6
20260508043402 71 65 6.0 11.0 0.00 0.00 0.00 78 1011.6
20260508043304 71 51 8.0 11.0 0.00 0.00 0.00 78 1011.7
20260508043203 71 103 7.0 11.0 0.00 0.00 0.00 79 1011.7
20260508043103 71 71 5.0 9.0 0.00 0.00 0.00 79 1011.7
20260508043002 71 90 4.0 9.0 0.00 0.00 0.00 79 1011.8
20260508042904 71 76 5.0 9.0 0.00 0.00 0.00 79 1011.7
20260508042802 71 71 5.0 9.0 0.00 0.00 0.00 79 1011.7
20260508042702 71 58 5.0 9.0 0.00 0.00 0.00 79 1011.7
20260508042603 71 86 3.0 9.0 0.00 0.00 0.00 79 1011.7
20260508042503 71 82 2.0 9.0 0.00 0.00 0.00 79 1011.8
20260508042402 71 82 4.0 9.0 0.00 0.00 0.00 79 1011.7
20260508042306 71 92 5.0 9.0 0.00 0.00 0.00 79 1011.7
20260508042203 71 94 5.0 9.0 0.00 0.00 0.00 79 1011.6
20260508042104 71 75 4.0 9.0 0.00 0.00 0.00 79 1011.6
20260508042003 71 87 4.0 9.0 0.00 0.00 0.00 79 1011.6
20260508041901 71 79 6.0 9.0 0.00 0.00 0.00 79 1011.6
20260508041802 71 68 6.0 9.0 0.00 0.00 0.00 79 1011.6
20260508041703 71 47 5.0 10.0 0.00 0.00 0.00 79 1011.6
20260508041603 71 32 3.0 10.0 0.00 0.00 0.00 79 1011.6
20260508041504 71 41 3.0 10.0 0.00 0.00 0.00 79 1011.5
20260508041403 71 52 5.0 12.0 0.00 0.00 0.00 79 1011.5
20260508041303 71 59 5.0 12.0 0.00 0.00 0.00 79 1011.4
20260508041202 71 55 5.0 12.0 0.00 0.00 0.00 79 1011.3
20260508041102 71 56 5.0 12.0 0.00 0.00 0.00 79 1011.3
20260508041002 71 48 6.0 12.0 0.00 0.00 0.00 79 1011.3
20260508040903 71 38 6.0 12.0 0.00 0.00 0.00 79 1011.3
20260508040802 71 73 6.0 12.0 0.00 0.00 0.00 79 1011.2
20260508040702 71 54 6.0 12.0 0.00 0.00 0.00 79 1011.4
20260508040602 71 82 7.0 12.0 0.00 0.00 0.00 79 1011.4
20260508040504 71 68 7.0 12.0 0.00 0.00 0.00 79 1011.4
20260508040402 71 73 5.0 10.0 0.00 0.00 0.00 79 1011.4
20260508040302 71 76 6.0 11.0 0.00 0.00 0.00 79 1011.4
20260508040203 71 58 6.0 11.0 0.00 0.00 0.00 79 1011.4
20260508040003 71 52 6.0 11.0 0.00 0.00 0.00 79 1011.4
20260508035903 71 78 6.0 11.0 0.00 0.00 0.00 79 1011.5
20260508035803 71 45 6.0 12.0 0.00 0.00 0.00 79 1011.4
20260508035702 71 47 6.0 12.0 0.00 0.00 0.00 79 1011.4
20260508035603 71 83 6.0 12.0 0.00 0.00 0.00 79 1011.4
20260508035504 71 83 6.0 12.0 0.00 0.00 0.00 79 1011.4
20260508035402 71 61 6.0 12.0 0.00 0.00 0.00 79 1011.4
20260508035306 71 71 6.0 12.0 0.00 0.00 0.00 79 1011.4
20260508035204 71 63 7.0 12.0 0.00 0.00 0.00 79 1011.4
20260508035103 71 55 7.0 12.0 0.00 0.00 0.00 79 1011.5
20260508035004 71 61 8.0 12.0 0.00 0.00 0.00 78 1011.5
20260508034901 71 51 7.0 12.0 0.00 0.00 0.00 79 1011.5
20260508034803 71 52 5.0 10.0 0.00 0.00 0.00 78 1011.6
20260508034702 71 59 5.0 10.0 0.00 0.00 0.00 78 1011.7
20260508034604 71 56 6.0 10.0 0.00 0.00 0.00 78 1011.7
20260508034504 71 41 6.0 10.0 0.00 0.00 0.00 78 1011.7
20260508034403 71 39 6.0 10.0 0.00 0.00 0.00 78 1012.0
20260508034303 71 55 6.0 10.0 0.00 0.00 0.00 78 1012.0
20260508034202 71 48 6.0 9.0 0.00 0.00 0.00 79 1012.0
20260508034102 71 59 6.0 9.0 0.00 0.00 0.00 79 1012.1
20260508034004 71 69 6.0 9.0 0.00 0.00 0.00 79 1012.2
20260508033903 71 68 5.0 9.0 0.00 0.00 0.00 79 1012.2
20260508033803 71 86 5.0 9.0 0.00 0.00 0.00 79 1012.1
20260508033701 71 82 5.0 9.0 0.00 0.00 0.00 79 1012.0
20260508033601 71 52 5.0 9.0 0.00 0.00 0.00 79 1012.0
20260508033503 71 62 5.0 9.0 0.00 0.00 0.00 79 1012.0
20260508033402 71 54 5.0 9.0 0.00 0.00 0.00 79 1012.0
20260508033303 71 62 5.0 7.0 0.00 0.00 0.00 79 1012.1
20260508033203 71 48 4.0 6.0 0.00 0.00 0.00 79 1012.1
20260508033104 71 62 4.0 6.0 0.00 0.00 0.00 79 1012.0
20260508033002 71 48 3.0 6.0 0.00 0.00 0.00 79 1012.2
20260508032901 71 42 3.0 6.0 0.00 0.00 0.00 79 1012.0
20260508032757 71 35 3.0 7.0 0.00 0.00 0.00 79 1012.0
20260508032657 71 41 2.0 7.0 0.00 0.00 0.00 79 1012.1
20260508032556 71 34 3.0 7.0 0.00 0.00 0.00 79 1012.0
20260508032454 71 56 3.0 7.0 0.00 0.00 0.00 78 1012.1
20260508032351 71 68 4.0 7.0 0.00 0.00 0.00 78 1012.1
20260508032250 71 42 4.0 7.0 0.00 0.00 0.00 78 1012.1
20260508032149 71 39 4.0 11.0 0.00 0.00 0.00 78 1012.1
20260508032049 71 65 5.0 11.0 0.00 0.00 0.00 78 1012.1
20260508031947 71 52 4.0 11.0 0.00 0.00 0.00 78 1012.1
20260508031846 71 21 4.0 11.0 0.00 0.00 0.00 78 1012.1
20260508031743 71 63 4.0 11.0 0.00 0.00 0.00 78 1012.1
20260508031643 71 28 4.0 11.0 0.00 0.00 0.00 78 1012.1
20260508031540 71 52 5.0 11.0 0.00 0.00 0.00 78 1012.1
20260508031440 71 49 5.0 11.0 0.00 0.00 0.00 78 1012.1
20260508031337 71 27 7.0 11.0 0.00 0.00 0.00 78 1012.1
20260508031236 71 30 6.0 11.0 0.00 0.00 0.00 78 1012.2
20260508031135 71 23 5.0 10.0 0.00 0.00 0.00 78 1012.1
20260508031031 71 10 6.0 10.0 0.00 0.00 0.00 77 1012.2
20260508030933 71 52 6.0 10.0 0.00 0.00 0.00 77 1012.2
20260508030831 71 0 5.0 10.0 0.00 0.00 0.00 77 1012.3
20260508030731 71 14 6.0 10.0 0.00 0.00 0.00 77 1012.3
20260508030632 71 30 6.0 10.0 0.00 0.00 0.00 77 1012.3
20260508030531 71 32 4.0 9.0 0.00 0.00 0.00 77 1012.3
20260508030431 71 0 4.0 9.0 0.00 0.00 0.00 77 1012.3
20260508030332 71 11 5.0 9.0 0.00 0.00 0.00 77 1012.3
20260508030231 71 14 7.0 9.0 0.00 0.00 0.00 77 1012.3
20260508030133 71 14 4.0 7.0 0.00 0.00 0.00 77 1012.3
20260508030028 71 14 4.0 7.0 0.00 0.00 0.00 77 1012.3
20260508025904 71 14 4.0 7.0 0.00 0.00 0.00 77 1012.4
20260508025802 71 14 4.0 6.0 0.00 0.00 0.00 77 1012.4
20260508025703 71 13 3.0 6.0 0.00 0.00 0.00 76 1012.4
20260508025603 71 0 4.0 6.0 0.00 0.00 0.00 76 1012.4
20260508025505 71 358 3.0 6.0 0.00 0.00 0.00 76 1012.5
20260508025404 71 358 3.0 7.0 0.00 0.00 0.00 76 1012.5
20260508025305 71 358 3.0 9.0 0.00 0.00 0.00 76 1012.4
20260508025203 71 358 3.0 9.0 0.00 0.00 0.00 76 1012.4
20260508025102 71 358 3.0 9.0 0.00 0.00 0.00 76 1012.3
20260508025004 71 23 3.0 9.0 0.00 0.00 0.00 76 1012.3
20260508024902 71 27 3.0 9.0 0.00 0.00 0.00 76 1012.3
20260508024803 71 13 3.0 9.0 0.00 0.00 0.00 76 1012.2
20260508024703 71 14 3.0 9.0 0.00 0.00 0.00 76 1012.1
20260508024603 71 20 4.0 9.0 0.00 0.00 0.00 76 1012.0
20260508024503 71 25 6.0 9.0 0.00 0.00 0.00 76 1012.0
20260508024402 71 42 6.0 9.0 0.00 0.00 0.00 76 1011.9
20260508024304 72 8 5.0 9.0 0.00 0.00 0.00 76 1011.9
20260508024202 72 47 4.0 7.0 0.00 0.00 0.00 76 1012.0
20260508024102 72 17 5.0 7.0 0.00 0.00 0.00 76 1012.0
20260508024004 72 20 5.0 7.0 0.00 0.00 0.00 76 1012.0
20260508023903 72 21 4.0 7.0 0.00 0.00 0.00 76 1012.0
20260508023801 72 38 4.0 7.0 0.00 0.00 0.00 76 1012.1
20260508023704 72 23 4.0 7.0 0.00 0.00 0.00 76 1012.1
20260508023602 72 20 5.0 7.0 0.00 0.00 0.00 76 1012.1
20260508023502 72 28 5.0 7.0 0.00 0.00 0.00 76 1012.0
20260508023402 72 27 3.0 7.0 0.00 0.00 0.00 76 1012.0
20260508023302 72 28 4.0 7.0 0.00 0.00 0.00 76 1011.9
20260508023203 72 14 5.0 7.0 0.00 0.00 0.00 76 1011.8
20260508023103 72 18 5.0 7.0 0.00 0.00 0.00 76 1011.8
20260508023003 72 20 4.0 7.0 0.00 0.00 0.00 76 1012.0
20260508022902 72 25 4.0 6.0 0.00 0.00 0.00 76 1011.9
20260508022803 72 10 5.0 6.0 0.00 0.00 0.00 76 1012.0
20260508022702 72 0 5.0 6.0 0.00 0.00 0.00 76 1011.9
20260508022603 72 37 4.0 6.0 0.00 0.00 0.00 76 1012.0
20260508022503 72 21 4.0 5.0 0.00 0.00 0.00 76 1012.0
20260508022402 72 14 3.0 5.0 0.00 0.00 0.00 76 1012.0
20260508022307 72 8 2.0 5.0 0.00 0.00 0.00 76 1012.1
20260508022203 72 0 2.0 5.0 0.00 0.00 0.00 76 1012.1
20260508022103 72 0 3.0 5.0 0.00 0.00 0.00 76 1012.1
20260508022004 72 0 3.0 5.0 0.00 0.00 0.00 76 1012.2
20260508021903 72 0 3.0 6.0 0.00 0.00 0.00 76 1012.2
20260508021804 72 0 3.0 6.0 0.00 0.00 0.00 76 1012.2
20260508021703 72 0 3.0 6.0 0.00 0.00 0.00 76 1012.2
20260508021603 72 0 3.0 6.0 0.00 0.00 0.00 75 1012.1
20260508021502 72 358 3.0 6.0 0.00 0.00 0.00 76 1012.1
20260508021402 72 0 3.0 6.0 0.00 0.00 0.00 75 1012.0
20260508021303 72 0 4.0 6.0 0.00 0.00 0.00 75 1012.1
20260508021203 72 0 3.0 6.0 0.00 0.00 0.00 75 1012.1
20260508021103 72 355 4.0 6.0 0.00 0.00 0.00 75 1012.1
20260508021002 72 358 4.0 6.0 0.00 0.00 0.00 75 1012.1
20260508020904 72 358 4.0 6.0 0.00 0.00 0.00 75 1012.1
20260508020802 72 357 4.0 5.0 0.00 0.00 0.00 75 1012.0
20260508020701 73 0 3.0 5.0 0.00 0.00 0.00 75 1012.0
20260508020603 73 8 3.0 5.0 0.00 0.00 0.00 75 1011.9
20260508020504 73 3 3.0 5.0 0.00 0.00 0.00 75 1011.9
20260508020401 73 1 4.0 5.0 0.00 0.00 0.00 75 1011.9
20260508020303 73 3 3.0 5.0 0.00 0.00 0.00 75 1011.9
20260508020203 73 6 2.0 4.0 0.00 0.00 0.00 76 1012.0
20260508020002 73 354 2.0 5.0 0.00 0.00 0.00 75 1012.0
20260508015903 73 354 2.0 5.0 0.00 0.00 0.00 76 1012.0
20260508015803 73 354 2.0 5.0 0.00 0.00 0.00 76 1012.0
20260508015702 73 354 3.0 5.0 0.00 0.00 0.00 76 1011.9
20260508015603 73 353 3.0 5.0 0.00 0.00 0.00 76 1011.9
20260508015504 73 331 3.0 5.0 0.00 0.00 0.00 76 1011.8
20260508015403 73 4 3.0 5.0 0.00 0.00 0.00 76 1011.8
20260508015305 73 4 3.0 5.0 0.00 0.00 0.00 76 1011.8
20260508015203 73 4 3.0 5.0 0.00 0.00 0.00 76 1011.7
20260508015102 73 1 2.0 4.0 0.00 0.00 0.00 75 1011.7
20260508015004 73 0 2.0 4.0 0.00 0.00 0.00 75 1011.7
20260508014903 73 0 2.0 4.0 0.00 0.00 0.00 75 1011.7
20260508014802 73 0 2.0 4.0 0.00 0.00 0.00 75 1011.8
20260508014703 73 1 2.0 4.0 0.00 0.00 0.00 75 1011.8
20260508014604 73 3 3.0 4.0 0.00 0.00 0.00 75 1011.8
20260508014504 73 3 3.0 4.0 0.00 0.00 0.00 75 1011.8
20260508014402 73 3 3.0 4.0 0.00 0.00 0.00 75 1011.8
20260508014303 73 3 3.0 4.0 0.00 0.00 0.00 75 1011.7
20260508014203 73 3 3.0 4.0 0.00 0.00 0.00 75 1011.8
20260508014103 73 4 3.0 4.0 0.00 0.00 0.00 75 1011.7
20260508014003 73 4 2.0 4.0 0.00 0.00 0.00 75 1011.7
20260508013902 73 3 3.0 6.0 0.00 0.00 0.00 75 1011.7
20260508013802 73 4 3.0 6.0 0.00 0.00 0.00 75 1011.7
20260508013704 73 0 3.0 6.0 0.00 0.00 0.00 75 1011.8
20260508013602 73 0 3.0 6.0 0.00 0.00 0.00 74 1011.8
20260508013502 73 0 3.0 6.0 0.00 0.00 0.00 75 1011.8
20260508013402 73 0 2.0 6.0 0.00 0.00 0.00 74 1011.8
20260508013302 73 0 2.0 7.0 0.00 0.00 0.00 75 1011.8
20260508013203 73 0 2.0 7.0 0.00 0.00 0.00 74 1011.7
20260508013103 73 38 3.0 7.0 0.00 0.00 0.00 75 1011.7
20260508013004 73 54 4.0 7.0 0.00 0.00 0.00 75 1011.6
20260508012902 74 37 4.0 9.0 0.00 0.00 0.00 75 1011.6
20260508012803 74 25 3.0 9.0 0.00 0.00 0.00 75 1011.5
20260508012702 74 30 3.0 9.0 0.00 0.00 0.00 75 1011.5
20260508012603 74 39 3.0 9.0 0.00 0.00 0.00 75 1011.5
20260508012503 74 39 4.0 9.0 0.00 0.00 0.00 75 1011.6
20260508012404 74 0 5.0 9.0 0.00 0.00 0.00 75 1011.7
20260508012306 74 42 4.0 9.0 0.00 0.00 0.00 76 1011.6
20260508012202 74 55 5.0 9.0 0.00 0.00 0.00 76 1011.6
20260508012104 74 47 5.0 9.0 0.00 0.00 0.00 76 1011.5
20260508012003 74 25 5.0 9.0 0.00 0.00 0.00 76 1011.6
20260508011902 74 31 4.0 6.0 0.00 0.00 0.00 75 1011.7
20260508011804 74 34 3.0 5.0 0.00 0.00 0.00 75 1011.7
20260508011703 74 14 3.0 5.0 0.00 0.00 0.00 75 1011.7
20260508011602 74 14 3.0 6.0 0.00 0.00 0.00 75 1011.8
20260508011503 74 27 3.0 6.0 0.00 0.00 0.00 75 1011.8
20260508011403 74 20 4.0 7.0 0.00 0.00 0.00 75 1011.8
20260508011302 74 18 3.0 7.0 0.00 0.00 0.00 75 1011.8
20260508011202 74 17 3.0 7.0 0.00 0.00 0.00 75 1011.8
20260508011103 74 7 3.0 9.0 0.00 0.00 0.00 75 1011.8
20260508011002 74 24 3.0 9.0 0.00 0.00 0.00 75 1011.8
20260508010902 74 0 3.0 9.0 0.00 0.00 0.00 75 1011.8
20260508010803 74 348 4.0 9.0 0.00 0.00 0.00 74 1011.7
20260508010702 74 0 3.0 9.0 0.00 0.00 0.00 75 1011.7
20260508010602 74 38 3.0 11.0 0.00 0.00 0.00 75 1011.7
20260508010502 74 38 4.0 11.0 0.00 0.00 0.00 75 1011.7
20260508010402 74 24 4.0 11.0 0.00 0.00 0.00 75 1011.8
20260508010302 74 6 5.0 11.0 0.00 0.00 0.00 75 1011.8
20260508010202 74 0 5.0 11.0 0.00 0.00 0.00 75 1011.8
20260508010002 74 351 3.0 11.0 0.00 0.00 0.00 75 1011.7
20260508005902 74 0 4.0 11.0 0.00 0.00 0.00 75 1011.7
20260508005801 74 13 5.0 11.0 0.00 0.00 0.00 75 1011.7
20260508005702 74 13 5.0 11.0 0.00 0.00 0.00 75 1011.7
20260508005602 74 18 4.0 7.0 0.00 0.00 0.00 75 1011.6
20260508005503 74 11 3.0 7.0 0.00 0.00 0.00 75 1011.6
20260508005402 74 17 4.0 7.0 0.00 0.00 0.00 74 1011.5
20260508005305 74 10 5.0 7.0 0.00 0.00 0.00 74 1011.5
20260508005202 74 11 5.0 7.0 0.00 0.00 0.00 74 1011.5
20260508005104 74 17 4.0 7.0 0.00 0.00 0.00 74 1011.6
20260508005004 74 0 4.0 7.0 0.00 0.00 0.00 74 1011.5
20260508004903 74 0 5.0 7.0 0.00 0.00 0.00 74 1011.5
20260508004802 74 13 5.0 7.0 0.00 0.00 0.00 74 1011.6
20260508004701 75 3 5.0 7.0 0.00 0.00 0.00 74 1011.7
20260508004602 74 0 5.0 7.0 0.00 0.00 0.00 74 1011.6
20260508004502 75 13 4.0 7.0 0.00 0.00 0.00 75 1011.6
20260508004403 74 10 4.0 7.0 0.00 0.00 0.00 75 1011.6
20260508004303 74 30 3.0 7.0 0.00 0.00 0.00 75 1011.6
20260508004202 75 0 3.0 7.0 0.00 0.00 0.00 75 1011.6
20260508004103 74 354 3.0 7.0 0.00 0.00 0.00 75 1011.7
20260508004005 74 7 3.0 7.0 0.00 0.00 0.00 75 1011.7
20260508003903 75 24 3.0 7.0 0.00 0.00 0.00 75 1011.6
20260508003803 75 0 4.0 7.0 0.00 0.00 0.00 75 1011.6
20260508003703 75 0 4.0 7.0 0.00 0.00 0.00 75 1011.6
20260508003603 75 28 4.0 7.0 0.00 0.00 0.00 75 1011.6
20260508003503 75 10 4.0 7.0 0.00 0.00 0.00 75 1011.6
20260508003402 75 17 5.0 7.0 0.00 0.00 0.00 75 1011.6
20260508003304 75 17 6.0 7.0 0.00 0.00 0.00 75 1011.6
20260508003201 75 0 5.0 7.0 0.00 0.00 0.00 75 1011.7
20260508003103 75 353 4.0 7.0 0.00 0.00 0.00 75 1011.7
20260508003006 75 1 4.0 6.0 0.00 0.00 0.00 75 1011.7
20260508002904 75 343 3.0 9.0 0.00 0.00 0.00 75 1011.8
20260508002802 75 0 3.0 9.0 0.00 0.00 0.00 74 1011.8
20260508002703 75 4 3.0 9.0 0.00 0.00 0.00 74 1011.7
20260508002603 75 4 3.0 9.0 0.00 0.00 0.00 74 1011.7
20260508002504 75 4 3.0 9.0 0.00 0.00 0.00 74 1011.7
20260508002403 75 4 3.0 9.0 0.00 0.00 0.00 74 1011.6
20260508002306 75 17 4.0 9.0 0.00 0.00 0.00 74 1011.6
20260508002202 75 13 4.0 9.0 0.00 0.00 0.00 74 1011.7
20260508002102 75 10 3.0 9.0 0.00 0.00 0.00 74 1011.7
20260508002003 75 10 3.0 9.0 0.00 0.00 0.00 74 1011.7
20260508001901 75 345 4.0 6.0 0.00 0.00 0.00 74 1011.7
20260508001803 75 344 4.0 6.0 0.00 0.00 0.00 74 1011.7
20260508001704 75 0 4.0 7.0 0.00 0.00 0.00 74 1011.7
20260508001602 75 357 4.0 7.0 0.00 0.00 0.00 74 1011.6
20260508001504 75 330 4.0 9.0 0.00 0.00 0.00 74 1011.7
20260508001403 75 7 4.0 9.0 0.00 0.00 0.00 75 1011.7
20260508001303 75 354 4.0 9.0 0.00 0.00 0.00 75 1011.8
20260508001202 75 357 3.0 9.0 0.00 0.00 0.00 75 1011.8
20260508001102 75 329 3.0 9.0 0.00 0.00 0.00 75 1011.8
20260508001004 75 21 4.0 9.0 0.00 0.00 0.00 75 1011.8
20260508000902 75 13 5.0 9.0 0.00 0.00 0.00 74 1011.8
20260508000803 75 358 5.0 9.0 0.00 0.00 0.00 74 1011.8
20260508000702 75 10 6.0 9.0 0.00 0.00 0.00 74 1011.7
20260508000601 76 0 6.0 10.0 0.00 0.00 0.00 74 1011.8
20260508000503 76 24 3.0 10.0 0.00 0.00 0.00 74 1011.7
20260508000405 76 350 3.0 10.0 0.00 0.00 0.00 74 1011.7
20260508000305 76 1 4.0 11.0 0.00 0.00 0.00 74 1011.7
20260508000204 76 0 4.0 11.0 0.00 0.00 0.00 74 1011.8
20260508000003 76 0 4.0 11.0 0.00 0.00 0.00 74 1011.8
20260507235903 76 347 6.0 11.0 0.00 0.00 0.00 74 1011.9
20260507235802 76 344 6.0 11.0 0.00 0.00 0.00 74 1011.9
20260507235702 76 8 5.0 11.0 0.00 0.00 0.00 74 1011.9
20260507235604 76 334 5.0 11.0 0.00 0.00 0.00 74 1011.9
20260507235502 76 0 6.0 11.0 0.00 0.00 0.00 74 1011.9
20260507235402 76 0 7.0 11.0 0.00 0.00 0.00 74 1011.9
20260507235306 76 14 5.0 11.0 0.00 0.00 0.00 74 1011.9
20260507235203 76 340 3.0 10.0 0.00 0.00 0.00 74 1011.9
20260507235102 76 351 4.0 10.0 0.00 0.00 0.00 74 1011.9
20260507235001 76 358 4.0 10.0 0.00 0.00 0.00 74 1011.9
20260507234903 76 354 3.0 10.0 0.00 0.00 0.00 74 1011.9
20260507234802 76 10 5.0 10.0 0.00 0.00 0.00 74 1011.9
20260507234702 76 10 5.0 10.0 0.00 0.00 0.00 75 1011.9
20260507234602 76 358 4.0 9.0 0.00 0.00 0.00 75 1011.9
20260507234504 76 0 4.0 9.0 0.00 0.00 0.00 75 1011.8
20260507234401 76 358 5.0 9.0 0.00 0.00 0.00 74 1011.8
20260507234302 76 350 4.0 9.0 0.00 0.00 0.00 75 1011.8
20260507234203 76 11 2.0 10.0 0.00 0.00 0.00 75 1011.7
20260507234102 76 0 3.0 10.0 0.00 0.00 0.00 75 1011.7
20260507234002 76 0 3.0 10.0 0.00 0.00 0.00 75 1011.7
20260507233903 76 3 4.0 10.0 0.00 0.00 0.00 75 1011.7
20260507233802 76 4 4.0 10.0 0.00 0.00 0.00 74 1011.6
20260507233702 76 10 4.0 10.0 0.00 0.00 0.00 74 1011.7
20260507233603 76 6 5.0 10.0 0.00 0.00 0.00 74 1011.6
20260507233504 77 21 5.0 10.0 0.00 0.00 0.00 73 1011.6
20260507233402 77 24 6.0 10.0 0.00 0.00 0.00 73 1011.6
20260507233302 77 20 4.0 10.0 0.00 0.00 0.00 73 1011.5
20260507233203 77 7 2.0 9.0 0.00 0.00 0.00 73 1011.5
20260507233103 77 10 3.0 9.0 0.00 0.00 0.00 73 1011.5
20260507233002 77 10 4.0 10.0 0.00 0.00 0.00 73 1011.6
20260507232903 77 7 4.0 10.0 0.00 0.00 0.00 72 1011.5
20260507232804 77 13 4.0 10.0 0.00 0.00 0.00 72 1011.5
20260507232703 77 4 4.0 10.0 0.00 0.00 0.00 72 1011.5
20260507232602 77 6 6.0 10.0 0.00 0.00 0.00 72 1011.5
20260507232503 77 28 6.0 10.0 0.00 0.00 0.00 72 1011.6
20260507232402 77 32 6.0 10.0 0.00 0.00 0.00 72 1011.6
20260507232258 77 25 5.0 10.0 0.00 0.00 0.00 72 1011.6
20260507232159 77 28 5.0 10.0 0.00 0.00 0.00 72 1011.6
20260507232057 77 13 4.0 11.0 0.00 0.00 0.00 72 1011.6
20260507231955 77 23 4.0 11.0 0.00 0.00 0.00 72 1011.5
20260507231855 77 23 6.0 11.0 0.00 0.00 0.00 72 1011.5
20260507231752 77 25 6.0 13.0 0.00 0.00 0.00 72 1011.4
20260507231651 78 37 5.0 13.0 0.00 0.00 0.00 71 1011.3
20260507231549 78 32 6.0 13.0 0.00 0.00 0.00 71 1011.4
20260507231447 78 27 6.0 13.0 0.00 0.00 0.00 72 1011.4
20260507231348 78 14 7.0 13.0 0.00 0.00 0.00 72 1011.3
20260507231244 78 21 6.0 13.0 0.00 0.00 0.00 72 1011.3
20260507231143 78 39 6.0 13.0 0.00 0.00 0.00 71 1011.3
20260507231043 78 30 7.0 13.0 0.00 0.00 0.00 72 1011.3
20260507230939 78 25 8.0 13.0 0.00 0.00 0.00 72 1011.3
20260507230839 78 17 7.0 13.0 0.00 0.00 0.00 72 1011.3
20260507230737 78 20 6.0 10.0 0.00 0.00 0.00 72 1011.4
20260507230632 78 31 6.0 9.0 0.00 0.00 0.00 72 1011.3
20260507230531 78 23 6.0 9.0 0.00 0.00 0.00 73 1011.4
20260507230432 78 10 6.0 9.0 0.00 0.00 0.00 72 1011.4
20260507230331 78 28 6.0 9.0 0.00 0.00 0.00 72 1011.4
20260507230233 78 10 7.0 9.0 0.00 0.00 0.00 72 1011.4
20260507230131 78 10 7.0 9.0 0.00 0.00 0.00 72 1011.4
20260507230031 78 17 7.0 9.0 0.00 0.00 0.00 72 1011.3
20260507225931 78 8 7.0 9.0 0.00 0.00 0.00 72 1011.2
20260507225832 77 10 5.0 9.0 0.00 0.00 0.00 72 1011.3
20260507225733 77 16 4.0 9.0 0.00 0.00 0.00 73 1011.2
20260507225633 77 16 4.0 9.0 0.00 0.00 0.00 73 1011.2
20260507225530 77 21 4.0 9.0 0.00 0.00 0.00 73 1011.2
20260507225430 78 0 3.0 10.0 0.00 0.00 0.00 73 1011.3
20260507225331 77 0 3.0 10.0 0.00 0.00 0.00 73 1011.1
20260507225232 77 0 3.0 10.0 0.00 0.00 0.00 73 1011.1
20260507225131 77 0 5.0 10.0 0.00 0.00 0.00 73 1011.1
20260507225032 77 7 5.0 10.0 0.00 0.00 0.00 72 1011.0
20260507224931 77 13 5.0 10.0 0.00 0.00 0.00 73 1011.1
20260507224830 77 0 6.0 10.0 0.00 0.00 0.00 72 1011.0
20260507224732 77 10 6.0 10.0 0.00 0.00 0.00 73 1011.1
20260507224631 78 14 7.0 10.0 0.00 0.00 0.00 73 1011.1
20260507224531 78 3 6.0 10.0 0.00 0.00 0.00 73 1011.0
20260507224429 78 17 4.0 9.0 0.00 0.00 0.00 73 1011.0
20260507224330 78 10 4.0 6.0 0.00 0.00 0.00 73 1011.0
20260507224226 78 10 4.0 6.0 0.00 0.00 0.00 73 1011.1
20260507224126 78 7 3.0 6.0 0.00 0.00 0.00 73 1011.1
20260507224023 78 10 3.0 6.0 0.00 0.00 0.00 73 1011.0
20260507223922 78 13 4.0 6.0 0.00 0.00 0.00 73 1011.1
20260507223821 78 17 5.0 6.0 0.00 0.00 0.00 73 1011.1
20260507223721 78 0 4.0 7.0 0.00 0.00 0.00 73 1011.2
20260507223621 78 6 3.0 7.0 0.00 0.00 0.00 73 1011.2
20260507223521 78 0 3.0 7.0 0.00 0.00 0.00 73 1011.2
20260507223420 78 7 4.0 7.0 0.00 0.00 0.00 72 1011.2
20260507223320 78 20 4.0 7.0 0.00 0.00 0.00 72 1011.1
20260507223220 78 21 4.0 7.0 0.00 0.00 0.00 72 1011.2
20260507223120 78 21 4.0 7.0 0.00 0.00 0.00 72 1011.1
20260507223020 78 24 3.0 7.0 0.00 0.00 0.00 72 1011.2
20260507222921 78 34 4.0 7.0 0.00 0.00 0.00 72 1011.1
20260507222821 78 37 5.0 9.0 0.00 0.00 0.00 72 1011.2
20260507222720 78 35 5.0 9.0 0.00 0.00 0.00 72 1011.1
20260507222622 78 25 5.0 10.0 0.00 0.00 0.00 72 1011.1
20260507222520 77 34 6.0 10.0 0.00 0.00 0.00 72 1011.1
20260507222420 77 28 4.0 10.0 0.00 0.00 0.00 73 1011.2
20260507222320 77 8 4.0 10.0 0.00 0.00 0.00 72 1011.2
20260507222222 77 21 4.0 10.0 0.00 0.00 0.00 72 1011.2
20260507222120 77 17 4.0 10.0 0.00 0.00 0.00 73 1011.2
20260507222020 77 18 6.0 10.0 0.00 0.00 0.00 73 1011.3
20260507221922 77 25 6.0 10.0 0.00 0.00 0.00 72 1011.3
20260507221820 77 21 6.0 10.0 0.00 0.00 0.00 72 1011.3
20260507221720 78 27 5.0 10.0 0.00 0.00 0.00 73 1011.3
20260507221620 78 10 3.0 7.0 0.00 0.00 0.00 73 1011.3
20260507221522 78 18 4.0 7.0 0.00 0.00 0.00 73 1011.2
20260507221420 78 11 4.0 9.0 0.00 0.00 0.00 72 1011.3
20260507221320 78 18 4.0 9.0 0.00 0.00 0.00 72 1011.2
20260507221221 78 13 3.0 9.0 0.00 0.00 0.00 71 1011.2
20260507221121 78 1 2.0 9.0 0.00 0.00 0.00 71 1011.4
20260507221019 78 0 2.0 9.0 0.00 0.00 0.00 71 1011.3
20260507220920 78 0 3.0 9.0 0.00 0.00 0.00 71 1011.3
20260507220821 78 0 3.0 9.0 0.00 0.00 0.00 71 1011.4
20260507220720 78 0 4.0 9.0 0.00 0.00 0.00 71 1011.4
20260507220620 78 0 6.0 9.0 0.00 0.00 0.00 71 1011.4
20260507220521 78 23 5.0 10.0 0.00 0.00 0.00 71 1011.5
20260507220420 78 28 4.0 10.0 0.00 0.00 0.00 71 1011.5
20260507220319 78 17 3.0 10.0 0.00 0.00 0.00 71 1011.5
20260507220221 78 17 4.0 10.0 0.00 0.00 0.00 71 1011.5
20260507220121 78 17 4.0 10.0 0.00 0.00 0.00 71 1011.4
20260507220020 78 13 4.0 10.0 0.00 0.00 0.00 71 1011.5
20260507215920 78 32 5.0 10.0 0.00 0.00 0.00 71 1011.5
20260507215820 78 23 4.0 10.0 0.00 0.00 0.00 71 1011.5
20260507215719 78 18 5.0 10.0 0.00 0.00 0.00 71 1011.4
20260507215619 78 17 5.0 10.0 0.00 0.00 0.00 71 1011.4
20260507215520 78 14 4.0 9.0 0.00 0.00 0.00 71 1011.4
20260507215421 78 14 3.0 9.0 0.00 0.00 0.00 70 1011.4
20260507215319 78 216 3.0 9.0 0.00 0.00 0.00 70 1011.5
20260507215219 79 224 3.0 9.0 0.00 0.00 0.00 70 1011.4
20260507215120 78 0 3.0 9.0 0.00 0.00 0.00 70 1011.6
20260507215019 78 0 3.0 9.0 0.00 0.00 0.00 71 1011.6
20260507214919 78 0 4.0 9.0 0.00 0.00 0.00 71 1011.6
20260507214819 78 8 5.0 9.0 0.00 0.00 0.00 70 1011.7
20260507214720 78 17 5.0 9.0 0.00 0.00 0.00 71 1011.6
20260507214620 78 21 3.0 9.0 0.00 0.00 0.00 72 1011.7
20260507214520 78 8 4.0 9.0 0.00 0.00 0.00 72 1011.7
20260507214421 77 13 4.0 9.0 0.00 0.00 0.00 72 1011.7
20260507214321 77 41 5.0 9.0 0.00 0.00 0.00 72 1011.7
20260507214220 77 27 5.0 9.0 0.00 0.00 0.00 71 1011.7
20260507214120 77 35 5.0 9.0 0.00 0.00 0.00 71 1011.6
20260507214019 77 38 6.0 9.0 0.00 0.00 0.00 71 1011.6
20260507213919 77 23 6.0 9.0 0.00 0.00 0.00 72 1011.8
20260507213820 77 21 5.0 10.0 0.00 0.00 0.00 71 1011.7
20260507213720 77 14 4.0 10.0 0.00 0.00 0.00 71 1011.8
20260507213620 78 11 5.0 10.0 0.00 0.00 0.00 71 1011.7
20260507213521 78 11 5.0 11.0 0.00 0.00 0.00 71 1011.7
20260507213420 78 0 5.0 11.0 0.00 0.00 0.00 71 1011.7
20260507213319 78 4 3.0 11.0 0.00 0.00 0.00 71 1011.7
20260507213219 78 8 3.0 11.0 0.00 0.00 0.00 71 1011.6
20260507213119 78 27 4.0 11.0 0.00 0.00 0.00 70 1011.7
20260507213020 78 18 5.0 11.0 0.00 0.00 0.00 70 1011.6
20260507212919 78 27 6.0 11.0 0.00 0.00 0.00 71 1011.7
20260507212820 78 52 5.0 11.0 0.00 0.00 0.00 71 1011.7
20260507212720 78 31 5.0 11.0 0.00 0.00 0.00 70 1011.7
20260507212621 78 347 5.0 11.0 0.00 0.00 0.00 69 1011.6
20260507212519 79 4 4.0 9.0 0.00 0.00 0.00 68 1011.6
20260507212419 79 0 4.0 9.0 0.00 0.00 0.00 68 1011.6
20260507212320 80 7 4.0 9.0 0.00 0.00 0.00 68 1011.6
20260507212218 80 357 4.0 10.0 0.00 0.00 0.00 67 1011.6
20260507212118 80 351 3.0 10.0 0.00 0.00 0.00 68 1011.7
20260507212019 80 4 3.0 10.0 0.00 0.00 0.00 68 1011.7
20260507211919 80 4 2.0 10.0 0.00 0.00 0.00 68 1011.7
20260507211820 80 4 3.0 10.0 0.00 0.00 0.00 70 1011.6
20260507211719 80 32 3.0 12.0 0.00 0.00 0.00 70 1011.7
20260507211621 79 17 4.0 12.0 0.00 0.00 0.00 71 1011.7
20260507211519 78 20 5.0 12.0 0.00 0.00 0.00 71 1011.7
20260507211418 78 51 6.0 12.0 0.00 0.00 0.00 70 1011.8
20260507211320 79 32 7.0 12.0 0.00 0.00 0.00 69 1011.8
20260507211219 79 51 6.0 12.0 0.00 0.00 0.00 69 1011.7
20260507211118 79 31 7.0 13.0 0.00 0.00 0.00 69 1011.8
20260507211018 79 30 7.0 13.0 0.00 0.00 0.00 69 1011.8
20260507210919 79 21 7.0 13.0 0.00 0.00 0.00 69 1011.8
20260507210818 79 25 7.0 13.0 0.00 0.00 0.00 69 1011.8
20260507210718 79 37 4.0 13.0 0.00 0.00 0.00 70 1011.7
20260507210620 78 27 4.0 13.0 0.00 0.00 0.00 69 1011.8
20260507210519 78 28 5.0 13.0 0.00 0.00 0.00 69 1011.8
20260507210418 78 25 6.0 13.0 0.00 0.00 0.00 70 1011.8
20260507210319 78 35 8.0 13.0 0.00 0.00 0.00 70 1011.9
20260507210220 79 6 7.0 13.0 0.00 0.00 0.00 70 1011.9
20260507210118 79 11 5.0 10.0 0.00 0.00 0.00 69 1011.9
20260507210019 79 45 6.0 10.0 0.00 0.00 0.00 69 1011.9
20260507205919 79 3 6.0 10.0 0.00 0.00 0.00 69 1011.9
20260507205819 79 20 5.0 11.0 0.00 0.00 0.00 70 1011.9
20260507205718 78 4 5.0 12.0 0.00 0.00 0.00 71 1012.0
20260507205619 78 20 6.0 12.0 0.00 0.00 0.00 69 1011.9
20260507205518 78 31 6.0 12.0 0.00 0.00 0.00 70 1011.8
20260507205419 79 23 5.0 12.0 0.00 0.00 0.00 70 1011.8
20260507205318 78 45 5.0 12.0 0.00 0.00 0.00 70 1011.8
20260507205219 79 45 5.0 12.0 0.00 0.00 0.00 69 1011.9
20260507205118 79 11 5.0 12.0 0.00 0.00 0.00 69 1011.9
20260507205018 79 0 6.0 12.0 0.00 0.00 0.00 70 1011.9
20260507204919 79 20 8.0 12.0 0.00 0.00 0.00 69 1011.8
20260507204818 79 21 7.0 12.0 0.00 0.00 0.00 70 1011.9
20260507204719 79 16 6.0 14.0 0.00 0.00 0.00 70 1012.0
20260507204618 79 41 8.0 14.0 0.00 0.00 0.00 69 1011.9
20260507204521 79 39 7.0 14.0 0.00 0.00 0.00 69 1012.0
20260507204419 79 44 5.0 14.0 0.00 0.00 0.00 70 1012.1
20260507204319 78 0 6.0 14.0 0.00 0.00 0.00 70 1012.0
20260507204219 78 25 7.0 14.0 0.00 0.00 0.00 70 1012.1
20260507204119 79 320 7.0 14.0 0.00 0.00 0.00 69 1012.0
20260507204018 79 3 7.0 14.0 0.00 0.00 0.00 69 1012.0
20260507203916 79 4 8.0 14.0 0.00 0.00 0.00 69 1012.0
20260507203815 79 1 8.0 14.0 0.00 0.00 0.00 69 1012.0
20260507203714 79 350 5.0 11.0 0.00 0.00 0.00 71 1012.0
20260507203611 79 24 3.0 11.0 0.00 0.00 0.00 71 1011.9
20260507203510 78 358 3.0 11.0 0.00 0.00 0.00 70 1011.9
20260507203409 78 24 4.0 11.0 0.00 0.00 0.00 70 1011.9
20260507203307 78 344 4.0 11.0 0.00 0.00 0.00 71 1011.9
20260507203207 78 357 4.0 11.0 0.00 0.00 0.00 71 1011.9
20260507203104 78 20 5.0 11.0 0.00 0.00 0.00 71 1012.0
20260507203003 78 341 7.0 11.0 0.00 0.00 0.00 71 1012.0
20260507202903 78 30 8.0 11.0 0.00 0.00 0.00 71 1012.1
20260507202802 78 357 6.0 11.0 0.00 0.00 0.00 71 1012.1
20260507202702 78 7 6.0 11.0 0.00 0.00 0.00 71 1012.1
20260507202602 78 11 7.0 11.0 0.00 0.00 0.00 70 1012.2
20260507202502 78 0 6.0 10.0 0.00 0.00 0.00 71 1012.3
20260507202403 78 3 5.0 10.0 0.00 0.00 0.00 71 1012.3
20260507202306 78 357 5.0 10.0 0.00 0.00 0.00 72 1012.3
20260507202202 78 34 5.0 10.0 0.00 0.00 0.00 72 1012.3
20260507202103 78 13 6.0 11.0 0.00 0.00 0.00 71 1012.3
20260507202004 78 17 6.0 11.0 0.00 0.00 0.00 71 1012.2
20260507201901 78 24 5.0 11.0 0.00 0.00 0.00 71 1012.2
20260507201801 78 17 4.0 11.0 0.00 0.00 0.00 70 1012.2
20260507201703 78 13 3.0 11.0 0.00 0.00 0.00 71 1012.1
20260507201601 78 54 3.0 11.0 0.00 0.00 0.00 69 1012.2
20260507201501 78 65 3.0 11.0 0.00 0.00 0.00 70 1012.2
20260507201358 78 11 5.0 11.0 0.00 0.00 0.00 69 1012.2
20260507201257 79 21 8.0 11.0 0.00 0.00 0.00 68 1012.2
20260507201155 79 44 7.0 11.0 0.00 0.00 0.00 68 1012.2
20260507201055 79 25 5.0 12.0 0.00 0.00 0.00 69 1012.3
20260507200952 79 61 5.0 12.0 0.00 0.00 0.00 69 1012.2
20260507200850 79 32 4.0 12.0 0.00 0.00 0.00 69 1012.3
20260507200749 79 47 4.0 12.0 0.00 0.00 0.00 69 1012.3
20260507200647 79 41 6.0 16.0 0.00 0.00 0.00 69 1012.3
20260507200545 79 47 4.0 16.0 0.00 0.00 0.00 71 1012.3
20260507200441 78 23 3.0 16.0 0.00 0.00 0.00 70 1012.3
20260507200340 78 71 5.0 16.0 0.00 0.00 0.00 70 1012.3
20260507200238 78 39 6.0 16.0 0.00 0.00 0.00 70 1012.3
20260507200136 78 32 6.0 16.0 0.00 0.00 0.00 71 1012.3
20260507200036 78 3 7.0 16.0 0.00 0.00 0.00 70 1012.2
20260507195933 78 21 7.0 16.0 0.00 0.00 0.00 70 1012.2
20260507195830 78 20 9.0 16.0 0.00 0.00 0.00 70 1012.2
20260507195731 78 25 8.0 16.0 0.00 0.00 0.00 70 1012.3
20260507195632 78 25 5.0 14.0 0.00 0.00 0.00 70 1012.3
20260507195531 78 56 5.0 14.0 0.00 0.00 0.00 70 1012.3
20260507195430 78 42 6.0 14.0 0.00 0.00 0.00 71 1012.3
20260507195332 78 76 7.0 14.0 0.00 0.00 0.00 71 1012.4
20260507195232 78 13 9.0 14.0 0.00 0.00 0.00 71 1012.3
20260507195131 77 61 9.0 14.0 0.00 0.00 0.00 70 1012.4
20260507195031 78 34 7.0 14.0 0.00 0.00 0.00 69 1012.4
20260507194932 78 85 7.0 14.0 0.00 0.00 0.00 70 1012.4
20260507194832 78 10 8.0 14.0 0.00 0.00 0.00 69 1012.5
20260507194730 78 6 8.0 14.0 0.00 0.00 0.00 69 1012.5
20260507194631 78 0 6.0 11.0 0.00 0.00 0.00 70 1012.4
20260507194531 78 7 4.0 11.0 0.00 0.00 0.00 70 1012.5
20260507194431 78 17 4.0 14.0 0.00 0.00 0.00 71 1012.5
20260507194329 78 0 5.0 14.0 0.00 0.00 0.00 71 1012.6
20260507194226 77 18 6.0 14.0 0.00 0.00 0.00 71 1012.6
20260507194125 78 39 6.0 14.0 0.00 0.00 0.00 70 1012.6
20260507194024 78 0 5.0 14.0 0.00 0.00 0.00 70 1012.6
20260507193923 77 14 6.0 14.0 0.00 0.00 0.00 71 1012.6
20260507193817 77 21 6.0 14.0 0.00 0.00 0.00 72 1012.6
20260507193717 77 7 7.0 14.0 0.00 0.00 0.00 73 1012.7
20260507193616 76 14 9.0 14.0 0.00 0.00 0.00 73 1012.7
20260507193516 76 30 7.0 14.0 0.00 0.00 0.00 73 1012.6
20260507193417 76 0 6.0 14.0 0.00 0.00 0.00 72 1012.7
20260507193316 76 0 7.0 14.0 0.00 0.00 0.00 71 1012.8
20260507193217 76 0 4.0 14.0 0.00 0.00 0.00 71 1012.8
20260507193117 77 1 4.0 14.0 0.00 0.00 0.00 72 1012.8
20260507193017 77 0 6.0 14.0 0.00 0.00 0.00 71 1012.8
20260507192916 77 6 6.0 14.0 0.00 0.00 0.00 71 1012.9
20260507192817 77 0 7.0 14.0 0.00 0.00 0.00 71 1012.9
20260507192718 77 0 9.0 16.0 0.00 0.00 0.00 71 1012.9
20260507192616 77 14 9.0 16.0 0.00 0.00 0.00 71 1013.0
20260507192517 77 0 9.0 16.0 0.00 0.00 0.00 72 1013.1
20260507192417 76 0 8.0 16.0 0.00 0.00 0.00 74 1013.0
20260507192316 76 31 8.0 16.0 0.00 0.00 0.00 73 1013.0
20260507192217 76 18 8.0 16.0 0.00 0.00 0.00 72 1013.0
20260507192117 76 0 7.0 16.0 0.00 0.00 0.00 73 1013.1
20260507192016 76 13 7.0 16.0 0.00 0.00 0.00 73 1013.1
20260507191916 76 13 9.0 16.0 0.00 0.00 0.00 73 1013.1
20260507191818 76 8 9.0 16.0 0.00 0.00 0.00 72 1013.0
20260507191719 76 7 8.0 14.0 0.00 0.00 0.00 72 1013.1
20260507191616 76 23 9.0 14.0 0.00 0.00 0.00 72 1013.1
20260507191516 76 23 10.0 14.0 0.00 0.00 0.00 72 1013.1
20260507191416 76 16 9.0 14.0 0.00 0.00 0.00 72 1013.1
20260507191316 76 32 6.0 14.0 0.00 0.00 0.00 72 1013.1
20260507191216 76 16 4.0 12.0 0.00 0.00 0.00 73 1013.2
20260507191117 76 18 4.0 14.0 0.00 0.00 0.00 73 1013.2
20260507191015 76 0 5.0 14.0 0.00 0.00 0.00 73 1013.1
20260507190915 75 0 5.0 14.0 0.00 0.00 0.00 73 1013.3
20260507190816 75 27 8.0 14.0 0.00 0.00 0.00 73 1013.3
20260507190717 75 28 9.0 14.0 0.00 0.00 0.00 73 1013.3
20260507190617 75 31 8.0 14.0 0.00 0.00 0.00 72 1013.4
20260507190516 75 34 8.0 14.0 0.00 0.00 0.00 72 1013.3
20260507190416 76 4 8.0 14.0 0.00 0.00 0.00 73 1013.3
20260507190316 76 21 8.0 14.0 0.00 0.00 0.00 73 1013.3
20260507190215 75 20 7.0 14.0 0.00 0.00 0.00 73 1013.3
20260507190118 75 28 8.0 13.0 0.00 0.00 0.00 73 1013.2
20260507190017 75 6 9.0 13.0 0.00 0.00 0.00 73 1013.3
20260507185916 75 23 9.0 13.0 0.00 0.00 0.00 73 1013.3
20260507185815 75 18 8.0 13.0 0.00 0.00 0.00 73 1013.3
20260507185717 75 0 8.0 14.0 0.00 0.00 0.00 73 1013.2
20260507185615 75 0 8.0 14.0 0.00 0.00 0.00 73 1013.2
20260507185516 75 13 6.0 14.0 0.00 0.00 0.00 73 1013.1
20260507185416 75 3 6.0 14.0 0.00 0.00 0.00 74 1013.2
20260507185315 75 24 7.0 14.0 0.00 0.00 0.00 73 1013.1
20260507185216 75 0 7.0 14.0 0.00 0.00 0.00 73 1013.1
20260507185116 75 0 7.0 14.0 0.00 0.00 0.00 72 1013.2
20260507185016 75 0 7.0 14.0 0.00 0.00 0.00 72 1013.2
20260507184915 76 214 10.0 14.0 0.00 0.00 0.00 72 1013.2
20260507184815 76 11 9.0 14.0 0.00 0.00 0.00 72 1013.2
20260507184716 76 8 8.0 13.0 0.00 0.00 0.00 72 1013.2
20260507184615 76 0 7.0 12.0 0.00 0.00 0.00 73 1013.3
20260507184516 76 34 6.0 12.0 0.00 0.00 0.00 73 1013.3
20260507184417 76 0 4.0 12.0 0.00 0.00 0.00 73 1013.2
20260507184317 75 11 4.0 12.0 0.00 0.00 0.00 74 1013.3
20260507184215 75 24 5.0 12.0 0.00 0.00 0.00 73 1013.3
20260507184115 75 8 6.0 12.0 0.00 0.00 0.00 73 1013.4
20260507184017 75 0 7.0 12.0 0.00 0.00 0.00 73 1013.3
20260507183916 75 0 6.0 12.0 0.00 0.00 0.00 74 1013.3
20260507183816 75 0 6.0 11.0 0.00 0.00 0.00 73 1013.3
20260507183716 75 0 7.0 11.0 0.00 0.00 0.00 74 1013.3
20260507183617 75 0 8.0 11.0 0.00 0.00 0.00 73 1013.3
20260507183516 75 0 5.0 11.0 0.00 0.00 0.00 75 1013.4
20260507183415 74 11 5.0 11.0 0.00 0.00 0.00 75 1013.3
20260507183317 74 0 6.0 14.0 0.00 0.00 0.00 75 1013.4
20260507183215 74 10 5.0 14.0 0.00 0.00 0.00 75 1013.4
20260507183115 74 3 6.0 14.0 0.00 0.00 0.00 74 1013.4
20260507183016 74 10 6.0 14.0 0.00 0.00 0.00 75 1013.5
20260507182916 74 0 5.0 14.0 0.00 0.00 0.00 74 1013.5
20260507182815 74 1 6.0 14.0 0.00 0.00 0.00 74 1013.3
20260507182715 74 0 6.0 14.0 0.00 0.00 0.00 74 1013.4
20260507182617 74 0 6.0 14.0 0.00 0.00 0.00 74 1013.4
20260507182514 74 0 8.0 14.0 0.00 0.00 0.00 75 1013.4
20260507182415 74 3 8.0 14.0 0.00 0.00 0.00 74 1013.5
20260507182316 74 0 6.0 13.0 0.00 0.00 0.00 75 1013.5
20260507182216 74 1 4.0 13.0 0.00 0.00 0.00 74 1013.4
20260507182115 74 1 6.0 13.0 0.00 0.00 0.00 73 1013.5
20260507182017 74 8 7.0 13.0 0.00 0.00 0.00 73 1013.5
20260507181916 75 0 7.0 13.0 0.00 0.00 0.00 73 1013.5
20260507181815 75 3 7.0 12.0 0.00 0.00 0.00 74 1013.5
20260507181715 75 30 6.0 12.0 0.00 0.00 0.00 74 1013.5
20260507181615 75 8 5.0 12.0 0.00 0.00 0.00 74 1013.5
20260507181515 74 0 5.0 12.0 0.00 0.00 0.00 74 1013.5
20260507181416 75 0 5.0 12.0 0.00 0.00 0.00 73 1013.4
20260507181314 75 0 6.0 12.0 0.00 0.00 0.00 74 1013.6
20260507181216 75 17 7.0 12.0 0.00 0.00 0.00 74 1013.6
20260507181114 75 0 7.0 12.0 0.00 0.00 0.00 75 1013.6
20260507181015 74 0 5.0 12.0 0.00 0.00 0.00 76 1013.6
20260507180915 74 0 3.0 12.0 0.00 0.00 0.00 76 1013.6
20260507180815 74 0 4.0 12.0 0.00 0.00 0.00 75 1013.7
20260507180715 73 0 6.0 12.0 0.00 0.00 0.00 76 1013.7
20260507180615 74 0 6.0 12.0 0.00 0.00 0.00 75 1013.7
20260507180514 74 0 4.0 12.0 0.00 0.00 0.00 74 1013.7
20260507180415 74 3 6.0 12.0 0.00 0.00 0.00 74 1013.7
20260507180316 74 3 6.0 12.0 0.00 0.00 0.00 74 1013.8
20260507180216 74 3 6.0 13.0 0.00 0.00 0.00 74 1013.8
20260507180116 74 3 6.0 13.0 0.00 0.00 0.00 74 1013.8
20260507180004 74 3 6.0 13.0 0.00 0.00 0.00 74 1013.8
20260507175902 74 0 6.0 13.0 0.00 0.00 0.00 74 1013.8
20260507175803 74 0 6.0 13.0 0.00 0.00 0.00 73 1013.8
20260507175704 75 0 7.0 13.0 0.00 0.00 0.00 73 1013.8
20260507175602 75 0 9.0 13.0 0.00 0.00 0.00 73 1013.8
20260507175502 75 25 8.0 13.0 0.00 0.00 0.00 73 1013.9
20260507175403 75 13 8.0 13.0 0.00 0.00 0.00 73 1013.8
20260507175306 75 0 8.0 13.0 0.00 0.00 0.00 74 1013.9
20260507175202 75 10 7.0 13.0 0.00 0.00 0.00 75 1013.8
20260507175102 74 17 7.0 13.0 0.00 0.00 0.00 74 1013.8
20260507175004 74 24 5.0 13.0 0.00 0.00 0.00 75 1013.9
20260507174902 74 1 4.0 13.0 0.00 0.00 0.00 75 1013.9
20260507174803 74 0 5.0 13.0 0.00 0.00 0.00 75 1014.0
20260507174704 73 0 8.0 13.0 0.00 0.00 0.00 75 1014.1
20260507174602 74 13 9.0 13.0 0.00 0.00 0.00 74 1014.0
20260507174503 74 21 8.0 13.0 0.00 0.00 0.00 74 1014.1
20260507174403 74 11 8.0 13.0 0.00 0.00 0.00 75 1014.1
20260507174302 74 10 6.0 13.0 0.00 0.00 0.00 75 1014.1
20260507174202 74 16 6.0 13.0 0.00 0.00 0.00 75 1014.1
20260507174101 73 4 6.0 13.0 0.00 0.00 0.00 74 1014.1
20260507174004 73 17 7.0 13.0 0.00 0.00 0.00 74 1014.1
20260507173902 73 14 7.0 13.0 0.00 0.00 0.00 74 1014.0
20260507173802 74 6 7.0 12.0 0.00 0.00 0.00 74 1014.0
20260507173703 74 18 8.0 12.0 0.00 0.00 0.00 73 1014.0
20260507173603 74 27 8.0 12.0 0.00 0.00 0.00 74 1014.1
20260507173504 74 0 6.0 11.0 0.00 0.00 0.00 75 1014.0
20260507173402 74 24 5.0 11.0 0.00 0.00 0.00 75 1014.0
20260507173303 73 0 6.0 11.0 0.00 0.00 0.00 75 1014.0
20260507173202 73 0 6.0 11.0 0.00 0.00 0.00 74 1014.1
20260507173101 73 0 6.0 11.0 0.00 0.00 0.00 74 1014.1
20260507173002 73 20 7.0 11.0 0.00 0.00 0.00 74 1014.1
20260507172903 73 7 6.0 11.0 0.00 0.00 0.00 74 1014.1
20260507172802 73 18 6.0 9.0 0.00 0.00 0.00 74 1014.0
20260507172705 73 16 5.0 9.0 0.00 0.00 0.00 74 1014.1
20260507172603 73 21 6.0 9.0 0.00 0.00 0.00 74 1014.1
20260507172502 74 180 6.0 9.0 0.00 0.00 0.00 74 1014.1
20260507172402 73 11 4.0 11.0 0.00 0.00 0.00 74 1014.1
20260507172307 73 0 5.0 12.0 0.00 0.00 0.00 74 1014.1
20260507172202 74 0 6.0 12.0 0.00 0.00 0.00 75 1014.2
20260507172102 73 0 5.0 12.0 0.00 0.00 0.00 76 1014.2
20260507172004 73 8 4.0 12.0 0.00 0.00 0.00 76 1014.2
20260507171903 73 8 4.0 12.0 0.00 0.00 0.00 76 1014.2
20260507171802 73 8 4.0 12.0 0.00 0.00 0.00 76 1014.1
20260507171702 73 4 4.0 12.0 0.00 0.00 0.00 76 1014.2
20260507171603 72 13 5.0 12.0 0.00 0.00 0.00 76 1014.2
20260507171502 72 169 7.0 12.0 0.00 0.00 0.00 76 1014.2
20260507171403 72 13 6.0 12.0 0.00 0.00 0.00 76 1014.3
20260507171303 72 155 6.0 10.0 0.00 0.00 0.00 77 1014.3
20260507171202 72 7 6.0 13.0 0.00 0.00 0.00 76 1014.3
20260507171102 72 3 4.0 13.0 0.00 0.00 0.00 77 1014.3
20260507171002 71 16 4.0 13.0 0.00 0.00 0.00 77 1014.3
20260507170902 71 8 5.0 13.0 0.00 0.00 0.00 77 1014.4
20260507170801 71 10 5.0 13.0 0.00 0.00 0.00 78 1014.3
20260507170702 71 1 6.0 13.0 0.00 0.00 0.00 78 1014.4
20260507170603 71 157 7.0 13.0 0.00 0.00 0.00 78 1014.3
20260507170503 70 20 9.0 13.0 0.00 0.00 0.00 78 1014.3
20260507170402 70 20 9.0 13.0 0.00 0.00 0.00 78 1014.4
20260507170303 70 20 9.0 13.0 0.00 0.00 0.00 78 1014.4
20260507170202 70 18 8.0 12.0 0.00 0.00 0.00 77 1014.4
20260507170103 70 21 8.0 12.0 0.00 0.00 0.00 77 1014.3
20260507170003 71 20 7.0 11.0 0.00 0.00 0.00 77 1014.3
20260507165904 71 21 6.0 11.0 0.00 0.00 0.00 78 1014.3
20260507165803 70 23 6.0 13.0 0.00 0.00 0.00 77 1014.3
20260507165702 70 6 7.0 13.0 0.00 0.00 0.00 77 1014.3
20260507165602 71 11 7.0 13.0 0.00 0.00 0.00 77 1014.3
20260507165502 71 20 7.0 13.0 0.00 0.00 0.00 77 1014.2
20260507165403 71 8 6.0 13.0 0.00 0.00 0.00 77 1014.3
20260507165306 71 10 5.0 13.0 0.00 0.00 0.00 78 1014.3
20260507165202 70 7 6.0 13.0 0.00 0.00 0.00 78 1014.2
20260507165103 70 1 8.0 13.0 0.00 0.00 0.00 76 1014.1
20260507165003 70 0 9.0 13.0 0.00 0.00 0.00 76 1014.1
20260507164903 71 7 6.0 13.0 0.00 0.00 0.00 77 1014.1
20260507164803 70 204 4.0 12.0 0.00 0.00 0.00 77 1014.0
20260507164701 70 0 6.0 12.0 0.00 0.00 0.00 77 1014.0
20260507164603 70 1 6.0 13.0 0.00 0.00 0.00 76 1014.1
20260507164504 71 207 5.0 13.0 0.00 0.00 0.00 76 1014.0
20260507164402 71 8 5.0 13.0 0.00 0.00 0.00 76 1014.0
20260507164302 71 8 6.0 14.0 0.00 0.00 0.00 76 1014.1
20260507164202 71 0 7.0 14.0 0.00 0.00 0.00 76 1014.1
20260507164102 71 16 6.0 14.0 0.00 0.00 0.00 77 1014.1
20260507164002 71 11 5.0 14.0 0.00 0.00 0.00 77 1014.1
20260507163903 70 10 7.0 14.0 0.00 0.00 0.00 76 1014.0
20260507163802 70 14 8.0 14.0 0.00 0.00 0.00 76 1014.1
20260507163702 70 21 7.0 15.0 0.00 0.00 0.00 77 1014.1
20260507163602 71 23 7.0 15.0 0.00 0.00 0.00 76 1014.1
20260507163503 71 0 7.0 15.0 0.00 0.00 0.00 77 1014.1
20260507163402 71 204 8.0 15.0 0.00 0.00 0.00 76 1014.0
20260507163302 71 200 7.0 15.0 0.00 0.00 0.00 77 1014.0
20260507163201 71 0 5.0 15.0 0.00 0.00 0.00 78 1014.0
20260507163101 70 14 2.0 15.0 0.00 0.00 0.00 78 1014.0
20260507163004 70 3 3.0 15.0 0.00 0.00 0.00 78 1013.8
20260507162902 70 4 8.0 15.0 0.00 0.00 0.00 78 1013.8
20260507162803 70 25 8.0 15.0 0.00 0.00 0.00 78 1013.8
20260507162702 70 11 7.0 15.0 0.00 0.00 0.00 77 1013.8
20260507162603 70 11 9.0 15.0 0.00 0.00 0.00 78 1013.8
20260507162504 70 23 8.0 15.0 0.00 0.00 0.00 78 1013.9
20260507162402 70 31 5.0 15.0 0.00 0.00 0.00 78 1013.9
20260507162306 69 0 5.0 15.0 0.00 0.00 0.00 78 1013.8
20260507162203 69 17 7.0 15.0 0.00 0.00 0.00 78 1013.7
20260507162103 69 4 9.0 18.0 0.00 0.00 0.00 78 1013.6
20260507162004 69 27 9.0 18.0 0.00 0.00 0.00 78 1013.7
20260507161903 69 190 10.0 18.0 0.00 0.00 0.00 78 1013.6
20260507161803 69 10 11.0 18.0 0.00 0.00 0.00 79 1013.6
20260507161704 69 11 10.0 18.0 0.00 0.00 0.00 79 1013.6
20260507161602 69 17 9.0 18.0 0.00 0.00 0.00 78 1013.6
20260507161503 69 42 9.0 18.0 0.00 0.00 0.00 78 1013.6
20260507161404 69 13 9.0 18.0 0.00 0.00 0.00 79 1013.6
20260507161301 69 6 11.0 18.0 0.00 0.00 0.00 78 1013.7
20260507161202 69 20 11.0 18.0 0.00 0.00 0.00 79 1013.7
20260507161102 69 10 10.0 15.0 0.00 0.00 0.00 79 1013.8
20260507161002 69 24 8.0 15.0 0.00 0.00 0.00 79 1013.8
20260507160902 69 21 7.0 11.0 0.00 0.00 0.00 80 1013.8
20260507160804 69 16 8.0 13.0 0.00 0.00 0.00 80 1013.9
20260507160703 69 11 7.0 13.0 0.00 0.00 0.00 80 1013.9
20260507160602 69 16 5.0 13.0 0.00 0.00 0.00 81 1014.0
20260507160503 68 10 4.0 13.0 0.00 0.00 0.00 81 1014.0
20260507160402 68 0 6.0 13.0 0.00 0.00 0.00 81 1014.1
20260507160303 68 6 5.0 13.0 0.00 0.00 0.00 81 1014.1
20260507160202 68 10 5.0 13.0 0.00 0.00 0.00 81 1014.1
20260507160002 67 13 9.0 13.0 0.00 0.00 0.00 81 1014.1
20260507155901 67 11 10.0 13.0 0.00 0.00 0.00 81 1014.2
20260507155803 67 14 9.0 13.0 0.00 0.00 0.00 82 1014.1
20260507155703 67 11 7.0 12.0 0.00 0.00 0.00 82 1014.1
20260507155603 67 0 6.0 12.0 0.00 0.00 0.00 82 1014.2
20260507155502 67 0 7.0 12.0 0.00 0.00 0.00 82 1014.2
20260507155401 67 0 8.0 12.0 0.00 0.00 0.00 82 1014.2
20260507155305 67 0 6.0 12.0 0.00 0.00 0.00 82 1014.3
20260507155202 67 7 5.0 9.0 0.00 0.00 0.00 82 1014.2
20260507155103 67 0 5.0 12.0 0.00 0.00 0.00 83 1014.2
20260507155003 67 0 5.0 12.0 0.00 0.00 0.00 83 1014.2
20260507154902 67 0 5.0 12.0 0.00 0.00 0.00 82 1014.2
20260507154801 67 7 6.0 12.0 0.00 0.00 0.00 82 1014.2
20260507154703 67 0 6.0 12.0 0.00 0.00 0.00 82 1014.2
20260507154601 67 82 4.0 12.0 0.00 0.00 0.00 83 1014.2
20260507154502 66 1 4.0 12.0 0.00 0.00 0.00 83 1014.3
20260507154403 66 8 5.0 12.0 0.00 0.00 0.00 83 1014.3
20260507154302 66 3 7.0 12.0 0.00 0.00 0.00 83 1014.3
20260507154202 66 3 8.0 12.0 0.00 0.00 0.00 83 1014.2
20260507154104 66 0 8.0 12.0 0.00 0.00 0.00 83 1014.2
20260507154005 66 6 6.0 12.0 0.00 0.00 0.00 84 1014.2
20260507153903 66 4 4.0 12.0 0.00 0.00 0.00 83 1014.2
20260507153803 65 4 6.0 12.0 0.00 0.00 0.00 84 1014.2
20260507153703 65 4 6.0 12.0 0.00 0.00 0.00 84 1014.3
20260507153603 65 4 6.0 13.0 0.00 0.00 0.00 84 1014.3
20260507153503 65 1 6.0 13.0 0.00 0.00 0.00 84 1014.3
20260507153403 65 0 6.0 13.0 0.00 0.00 0.00 84 1014.3
20260507153303 65 0 6.0 13.0 0.00 0.00 0.00 84 1014.3
20260507153204 65 0 6.0 13.0 0.00 0.00 0.00 85 1014.3
20260507153102 65 4 7.0 13.0 0.00 0.00 0.00 85 1014.4
20260507153004 65 3 7.0 13.0 0.00 0.00 0.00 85 1014.3
20260507152901 65 4 8.0 13.0 0.00 0.00 0.00 85 1014.3
20260507152801 65 1 8.0 13.0 0.00 0.00 0.00 86 1014.3
20260507152703 64 0 7.0 13.0 0.00 0.00 0.00 86 1014.4
20260507152602 64 4 6.0 13.0 0.00 0.00 0.00 86 1014.4
20260507152502 64 6 7.0 13.0 0.00 0.00 0.00 86 1014.4
20260507152404 64 6 6.0 13.0 0.00 0.00 0.00 86 1014.4
20260507152305 64 6 6.0 13.0 0.00 0.00 0.00 86 1014.4
20260507152202 64 6 6.0 13.0 0.00 0.00 0.00 86 1014.4
20260507152102 64 1 7.0 13.0 0.00 0.00 0.00 86 1014.4
20260507152004 64 6 9.0 15.0 0.00 0.00 0.00 86 1014.4
20260507151903 64 3 9.0 15.0 0.00 0.00 0.00 86 1014.3
20260507151802 64 1 8.0 15.0 0.00 0.00 0.00 86 1014.3
20260507151704 64 3 7.0 15.0 0.00 0.00 0.00 86 1014.3
20260507151602 64 3 8.0 15.0 0.00 0.00 0.00 86 1014.3
20260507151502 64 0 8.0 15.0 0.00 0.00 0.00 86 1014.3
20260507151402 64 0 7.0 15.0 0.00 0.00 0.00 86 1014.2
20260507151302 64 1 8.0 15.0 0.00 0.00 0.00 86 1014.3
20260507151202 64 1 9.0 15.0 0.00 0.00 0.00 86 1014.2
20260507151102 64 0 8.0 15.0 0.00 0.00 0.00 87 1014.2
20260507151004 64 0 5.0 15.0 0.00 0.00 0.00 87 1014.2
20260507150902 64 7 6.0 15.0 0.00 0.00 0.00 87 1014.2
20260507150802 64 1 6.0 15.0 0.00 0.00 0.00 87 1014.1
20260507150703 63 4 6.0 15.0 0.00 0.00 0.00 87 1014.1
20260507150603 63 6 6.0 15.0 0.00 0.00 0.00 87 1014.1
20260507150503 63 6 9.0 15.0 0.00 0.00 0.00 87 1014.1
20260507150402 63 3 11.0 15.0 0.00 0.00 0.00 87 1014.1
20260507150303 63 3 8.0 15.0 0.00 0.00 0.00 87 1014.3
20260507150202 63 1 7.0 14.0 0.00 0.00 0.00 87 1014.2
20260507150005 63 4 7.0 14.0 0.00 0.00 0.00 87 1014.3
20260507145903 63 3 8.0 14.0 0.00 0.00 0.00 87 1014.3
20260507145802 63 0 9.0 14.0 0.00 0.00 0.00 87 1014.3
20260507145703 63 4 9.0 14.0 0.00 0.00 0.00 87 1014.3
20260507145603 63 52 7.0 14.0 0.00 0.00 0.00 87 1014.2
20260507145503 63 0 9.0 14.0 0.00 0.00 0.00 87 1014.2
20260507145402 63 52 9.0 14.0 0.00 0.00 0.00 87 1014.3
20260507145306 63 48 6.0 14.0 0.00 0.00 0.00 87 1014.3
20260507145203 63 52 5.0 14.0 0.00 0.00 0.00 87 1014.3
20260507145103 63 0 6.0 14.0 0.00 0.00 0.00 87 1014.2
20260507145003 63 52 7.0 14.0 0.00 0.00 0.00 87 1014.2
20260507144903 63 52 6.0 13.0 0.00 0.00 0.00 87 1014.1
20260507144803 63 3 7.0 13.0 0.00 0.00 0.00 87 1014.1
20260507144702 63 1 8.0 13.0 0.00 0.00 0.00 87 1014.0
20260507144603 63 0 7.0 16.0 0.00 0.00 0.00 87 1014.1
20260507144502 63 0 7.0 16.0 0.00 0.00 0.00 87 1014.1
20260507144402 63 4 6.0 16.0 0.00 0.00 0.00 87 1014.1
20260507144302 63 6 7.0 16.0 0.00 0.00 0.00 87 1014.1
20260507144203 63 1 7.0 16.0 0.00 0.00 0.00 87 1014.1
20260507144103 63 6 8.0 16.0 0.00 0.00 0.00 87 1014.1
20260507144002 63 6 9.0 16.0 0.00 0.00 0.00 87 1014.1
20260507143904 63 3 7.0 16.0 0.00 0.00 0.00 87 1014.0
20260507143803 63 4 9.0 16.0 0.00 0.00 0.00 87 1014.0
20260507143703 63 6 9.0 16.0 0.00 0.00 0.00 87 1014.0
20260507143603 63 6 7.0 16.0 0.00 0.00 0.00 87 1013.9
20260507143504 63 7 7.0 15.0 0.00 0.00 0.00 87 1013.9
20260507143402 63 6 4.0 15.0 0.00 0.00 0.00 88 1013.9
20260507143303 63 4 4.0 15.0 0.00 0.00 0.00 88 1013.9
20260507143202 63 1 5.0 15.0 0.00 0.00 0.00 87 1013.8
20260507143102 63 1 6.0 15.0 0.00 0.00 0.00 88 1013.9
20260507143001 63 3 7.0 15.0 0.00 0.00 0.00 88 1013.9
20260507142901 63 3 9.0 15.0 0.00 0.00 0.00 88 1013.9
20260507142804 63 10 9.0 15.0 0.00 0.00 0.00 88 1013.9
20260507142702 63 4 8.0 15.0 0.00 0.00 0.00 88 1013.9
20260507142603 63 7 8.0 15.0 0.00 0.00 0.00 88 1013.9
20260507142504 63 3 9.0 15.0 0.00 0.00 0.00 88 1013.8
20260507142402 63 0 8.0 15.0 0.00 0.00 0.00 88 1013.9
20260507142306 63 7 8.0 15.0 0.00 0.00 0.00 88 1013.8
20260507142203 63 6 8.0 15.0 0.00 0.00 0.00 88 1013.9
20260507142103 63 52 8.0 15.0 0.00 0.00 0.00 88 1013.9
20260507142005 63 1 5.0 15.0 0.00 0.00 0.00 88 1013.8
20260507141903 63 7 6.0 15.0 0.00 0.00 0.00 88 1013.8
20260507141803 63 7 6.0 15.0 0.00 0.00 0.00 88 1013.8
20260507141703 63 7 6.0 15.0 0.00 0.00 0.00 88 1013.8
20260507141602 63 3 5.0 12.0 0.00 0.00 0.00 88 1013.9
20260507141505 63 6 6.0 14.0 0.00 0.00 0.00 88 1013.9
20260507141402 63 3 6.0 14.0 0.00 0.00 0.00 88 1014.0
20260507141302 63 55 5.0 14.0 0.00 0.00 0.00 88 1013.9
20260507141203 63 7 7.0 14.0 0.00 0.00 0.00 88 1013.9
20260507141103 63 54 8.0 14.0 0.00 0.00 0.00 88 1013.8
20260507141006 63 0 8.0 14.0 0.00 0.00 0.00 88 1013.9
20260507140902 63 55 7.0 14.0 0.00 0.00 0.00 88 1013.8
20260507140803 63 52 6.0 14.0 0.00 0.00 0.00 88 1013.9
20260507140702 63 0 7.0 14.0 0.00 0.00 0.00 88 1013.9
20260507140604 63 0 9.0 14.0 0.00 0.00 0.00 88 1013.8
20260507140504 63 0 7.0 14.0 0.00 0.00 0.00 88 1013.7
20260507140403 63 0 7.0 14.0 0.00 0.00 0.00 88 1013.8
20260507140301 63 1 8.0 14.0 0.00 0.00 0.00 88 1013.8
20260507140202 63 6 8.0 14.0 0.00 0.00 0.00 88 1013.8
20260507140105 63 4 7.0 14.0 0.00 0.00 0.00 88 1013.8
20260507140004 63 3 7.0 13.0 0.00 0.00 0.00 88 1013.9
20260507135903 64 3 7.0 13.0 0.00 0.00 0.00 88 1013.9
20260507135803 64 7 7.0 13.0 0.00 0.00 0.00 88 1014.0
20260507135703 64 4 7.0 13.0 0.00 0.00 0.00 88 1014.0
20260507135602 64 4 5.0 11.0 0.00 0.00 0.00 88 1014.0
20260507135503 64 54 4.0 11.0 0.00 0.00 0.00 88 1014.1
20260507135402 64 4 4.0 11.0 0.00 0.00 0.00 88 1014.0
20260507135306 64 3 4.0 11.0 0.00 0.00 0.00 88 1014.0
20260507135202 64 3 4.0 12.0 0.00 0.00 0.00 88 1014.0
20260507135102 64 54 5.0 12.0 0.00 0.00 0.00 88 1014.1
20260507135001 64 0 6.0 15.0 0.00 0.00 0.00 88 1014.1
20260507134901 64 1 6.0 15.0 0.00 0.00 0.00 88 1014.0
20260507134804 63 6 6.0 15.0 0.00 0.00 0.00 88 1014.1
20260507134702 63 3 6.0 15.0 0.00 0.00 0.00 88 1014.1
20260507134602 63 1 5.0 15.0 0.00 0.00 0.00 88 1014.1
20260507134504 63 0 6.0 15.0 0.00 0.00 0.00 89 1014.1
20260507134404 63 0 7.0 15.0 0.00 0.00 0.00 88 1014.2
20260507134302 63 0 8.0 15.0 0.00 0.00 0.00 88 1014.1
20260507134202 63 0 8.0 15.0 0.00 0.00 0.00 88 1014.3
20260507134102 63 1 9.0 15.0 0.00 0.00 0.00 88 1014.3
20260507134003 63 55 8.0 15.0 0.00 0.00 0.00 88 1014.3
20260507133903 63 3 8.0 15.0 0.00 0.00 0.00 88 1014.2
20260507133804 63 3 9.0 15.0 0.00 0.00 0.00 88 1014.3
20260507133702 63 0 9.0 15.0 0.00 0.00 0.00 88 1014.3
20260507133603 63 0 5.0 15.0 0.00 0.00 0.00 88 1014.2
20260507133502 63 1 4.0 15.0 0.00 0.00 0.00 88 1014.2
20260507133404 63 0 5.0 15.0 0.00 0.00 0.00 89 1014.2
20260507133302 63 0 5.0 15.0 0.00 0.00 0.00 89 1014.1
20260507133202 63 4 6.0 15.0 0.00 0.00 0.00 89 1014.1
20260507133102 63 1 8.0 15.0 0.00 0.00 0.00 88 1014.1
20260507133003 63 3 7.0 15.0 0.00 0.00 0.00 89 1014.0
20260507132901 63 0 7.0 15.0 0.00 0.00 0.00 89 1014.1
20260507132802 63 0 9.0 15.0 0.00 0.00 0.00 89 1014.1
20260507132703 63 4 9.0 15.0 0.00 0.00 0.00 89 1014.2
20260507132602 63 6 8.0 13.0 0.00 0.00 0.00 89 1014.2
20260507132502 63 3 8.0 13.0 0.00 0.00 0.00 89 1014.2
20260507132403 63 8 8.0 13.0 0.00 0.00 0.00 88 1014.3
20260507132306 63 7 7.0 13.0 0.00 0.00 0.00 89 1014.3
20260507132203 63 1 5.0 13.0 0.00 0.00 0.00 89 1014.4
20260507132104 63 0 5.0 13.0 0.00 0.00 0.00 89 1014.4
20260507132003 63 0 7.0 13.0 0.00 0.00 0.00 89 1014.5
20260507131903 63 4 8.0 13.0 0.00 0.00 0.00 89 1014.4
20260507131803 63 0 7.0 11.0 0.00 0.00 0.00 89 1014.5
20260507131704 63 0 7.0 11.0 0.00 0.00 0.00 89 1014.5
20260507131606 63 0 6.0 10.0 0.00 0.00 0.00 89 1014.4
20260507131503 63 0 4.0 11.0 0.00 0.00 0.00 89 1014.3
20260507131403 63 0 3.0 11.0 0.00 0.00 0.00 89 1014.2
20260507131302 63 4 4.0 13.0 0.00 0.00 0.00 89 1014.3
20260507131203 63 1 4.0 13.0 0.00 0.00 0.00 89 1014.2
20260507131103 63 0 4.0 13.0 0.00 0.00 0.00 89 1014.2
20260507131004 63 4 4.0 13.0 0.00 0.00 0.00 89 1014.2
20260507130902 63 52 5.0 13.0 0.00 0.00 0.00 89 1014.3
20260507130802 63 0 6.0 13.0 0.00 0.00 0.00 89 1014.2
20260507130704 63 52 7.0 14.0 0.00 0.00 0.00 89 1014.2
20260507130602 63 52 8.0 14.0 0.00 0.00 0.00 89 1014.3
20260507130504 63 0 8.0 14.0 0.00 0.00 0.00 89 1014.1
20260507130403 63 0 7.0 14.0 0.00 0.00 0.00 89 1014.2
20260507130303 63 1 7.0 14.0 0.00 0.00 0.00 89 1014.2
20260507130202 63 4 8.0 14.0 0.00 0.00 0.00 89 1014.2
20260507130103 63 3 7.0 14.0 0.00 0.00 0.00 89 1014.3
20260507125955 63 0 6.0 14.0 0.00 0.00 0.00 88 1014.3
20260507125851 63 0 7.0 14.0 0.00 0.00 0.00 88 1014.3
20260507125750 63 49 7.0 14.0 0.00 0.00 0.00 89 1014.3
20260507125648 63 51 7.0 14.0 0.00 0.00 0.00 88 1014.3
20260507125545 63 4 5.0 14.0 0.00 0.00 0.00 88 1014.3
20260507125445 63 49 4.0 14.0 0.00 0.00 0.00 89 1014.3
20260507125344 63 1 4.0 14.0 0.00 0.00 0.00 89 1014.2
20260507125242 63 48 6.0 14.0 0.00 0.00 0.00 89 1014.1
20260507125140 63 49 7.0 14.0 0.00 0.00 0.00 88 1014.0
20260507125038 63 51 7.0 14.0 0.00 0.00 0.00 88 1013.9
20260507124939 63 3 8.0 14.0 0.00 0.00 0.00 88 1013.8
20260507124837 64 3 9.0 14.0 0.00 0.00 0.00 88 1013.7
20260507124735 64 0 8.0 13.0 0.00 0.00 0.00 89 1013.7
20260507124632 64 51 7.0 13.0 0.00 0.00 0.00 89 1013.6
20260507124532 64 49 5.0 11.0 0.00 0.00 0.00 89 1013.6
20260507124431 64 51 5.0 11.0 0.00 0.00 0.00 89 1013.5
20260507124332 64 49 5.0 11.0 0.00 0.00 0.00 89 1013.6
20260507124232 64 1 4.0 11.0 0.00 0.00 0.00 89 1013.5
20260507124131 64 51 5.0 11.0 0.00 0.00 0.00 89 1013.5
20260507124031 64 49 6.0 11.0 0.00 0.00 0.00 89 1013.6
20260507123931 64 47 6.0 12.0 0.00 0.00 0.00 89 1013.5
20260507123831 64 49 7.0 12.0 0.00 0.00 0.00 89 1013.5
20260507123731 64 51 7.0 12.0 0.00 0.00 0.00 89 1013.4
20260507123631 64 3 7.0 12.0 0.00 0.00 0.00 89 1013.5
20260507123532 64 0 6.0 12.0 0.00 0.00 0.00 89 1013.5
20260507123431 63 3 6.0 12.0 0.00 0.00 0.00 89 1013.5
20260507123326 64 0 6.0 12.0 0.00 0.00 0.00 89 1013.4
20260507123224 64 0 6.0 12.0 0.00 0.00 0.00 89 1013.5
20260507123122 64 0 6.0 12.0 0.00 0.00 0.00 89 1013.5
20260507123022 64 48 7.0 12.0 0.00 0.00 0.00 89 1013.6
20260507122918 64 48 7.0 11.0 0.00 0.00 0.00 89 1013.6
20260507122816 64 47 6.0 10.0 0.00 0.00 0.00 89 1013.6
20260507122716 64 44 5.0 10.0 0.00 0.00 0.00 89 1013.5
20260507122613 64 0 6.0 10.0 0.00 0.00 0.00 89 1013.4
20260507122511 64 48 6.0 10.0 0.00 0.00 0.00 89 1013.2
20260507122410 64 0 6.0 10.0 0.00 0.00 0.00 89 1013.2
20260507122309 64 0 5.0 10.0 0.00 0.00 0.00 89 1013.1